GFSSW_850_thetae_111.txt.gz
Theta_e
300 300 299 299 299 300 300 300 300 300 300 300 300 301 301 302 303 304 306 307 309 309 311 311 316 315 312 317 317 316 310 312 314 312 313 315 315 317 317 317 318 320 320 322 323
300 299 299 298 299 299 299 299 299 299 300 300 300 300 301 301 303 305 307 312 313 310 312 313 312 315 314 316 317 312 309 311 311 312 313 315 315 316 315 316 317 318 319 319 320
301 299 299 299 299 299 299 299 299 299 299 299 299 300 300 301 302 307 313 312 314 313 313 313 313 313 315 316 315 312 314 310 313 314 314 313 313 315 314 313 316 316 318 319 319
301 300 299 298 298 298 298 298 299 299 299 299 299 299 299 300 302 314 311 309 309 310 309 310 312 313 311 314 316 315 312 314 314 317 315 312 316 313 315 315 319 318 318 317 320
299 298 298 297 297 298 298 298 299 298 298 298 298 298 299 300 302 305 307 311 308 308 308 309 314 313 312 312 314 313 314 316 317 318 317 316 313 314 315 319 319 319 318 318 321
299 298 298 297 297 297 298 298 298 298 298 298 297 297 298 303 304 306 307 306 308 308 308 310 314 315 315 314 313 315 315 315 316 316 316 315 315 315 317 319 318 318 319 319 319
300 299 298 298 298 297 298 298 298 298 298 298 298 298 299 301 303 303 309 309 309 308 308 308 308 310 310 310 312 312 311 310 311 314 314 316 316 313 318 318 318 319 320 320 320
299 299 298 297 297 297 297 298 298 298 299 299 300 301 301 302 303 304 304 306 308 308 308 308 307 308 308 310 309 310 310 311 314 314 315 315 317 316 317 317 318 318 319 319 319
298 297 297 296 296 297 297 298 299 300 302 303 302 302 304 305 307 307 308 308 308 310 312 311 307 307 307 307 307 307 310 310 311 313 313 312 311 313 316 315 316 317 317 317 316
297 297 296 295 296 299 299 299 300 304 305 308 307 307 304 305 311 309 307 306 307 309 309 312 306 303 302 305 310 309 307 308 310 310 311 309 309 309 312 315 314 315 316 315 316
297 296 296 295 296 301 301 300 301 303 303 302 306 309 306 307 308 309 308 306 306 307 307 311 305 303 304 307 309 308 307 306 306 306 306 306 306 307 309 311 312 314 315 315 316
297 297 296 295 296 301 303 303 301 300 301 302 302 302 302 302 302 303 306 304 306 305 307 308 311 307 305 304 304 304 305 305 304 304 305 305 307 309 308 309 312 315 316 316 316
298 297 295 295 296 299 302 302 302 302 302 302 301 302 302 301 302 302 302 305 307 307 307 306 308 312 312 309 307 306 305 305 305 305 307 307 310 311 310 311 314 315 315 315 316
298 296 295 295 297 297 301 302 302 302 302 301 304 305 303 303 304 305 302 303 307 306 307 307 308 310 312 313 310 311 307 307 306 309 311 310 313 313 311 310 311 312 313 314 315
297 296 296 295 297 298 297 300 300 304 296 302 307 305 306 306 310 309 306 303 306 307 309 308 308 311 311 311 311 312 311 311 311 310 310 310 310 312 310 312 311 311 313 315 316
295 295 295 296 296 297 297 300 299 296 297 302 304 303 303 304 309 310 306 306 307 308 308 306 308 309 308 308 309 309 309 310 311 310 312 311 310 312 310 311 312 312 314 320 320
294 294 295 295 294 296 297 300 294 299 300 301 302 301 302 303 305 310 311 307 310 310 310 310 309 308 309 309 308 307 308 308 309 312 313 310 311 312 311 311 313 319 321 321 320
295 294 294 294 294 296 297 298 298 298 301 302 300 300 301 302 302 302 310 309 309 310 310 311 310 309 308 308 309 307 308 309 309 310 310 311 313 312 314 315 319 320 321 320 320
294 294 293 297 295 296 299 298 297 298 299 299 300 301 302 302 301 301 301 302 304 308 310 311 311 309 308 309 310 310 308 308 308 308 313 310 311 310 313 317 318 319 321 320 319
293 293 295 297 296 298 298 298 298 299 299 299 298 300 300 300 301 301 302 302 302 303 304 308 308 306 306 309 309 311 310 308 309 313 311 310 313 313 314 318 318 317 319 319 318
293 293 297 298 297 298 294 297 298 298 299 299 300 300 299 299 300 301 301 303 302 302 302 302 304 306 306 306 305 308 311 311 312 310 313 311 309 315 319 319 317 316 317 316 316
294 287 296 295 297 298 296 298 299 299 299 299 300 300 300 299 300 300 300 301 301 302 302 302 301 302 302 303 305 308 312 312 314 314 313 313 311 310 311 318 317 317 316 314 315
294 293 293 294 287 287 297 298 298 297 300 300 300 300 300 300 301 300 301 301 302 302 302 303 302 302 302 305 305 308 306 305 311 312 312 315 312 310 310 311 318 317 317 315 316
293 286 294 296 296 295 294 296 298 299 299 299 300 300 300 301 301 300 301 302 302 303 305 305 302 301 301 305 303 302 302 302 309 307 308 309 307 309 308 308 316 316 316 316 316
293 289 294 289 292 296 296 296 296 297 299 299 300 301 301 302 301 299 300 303 303 304 304 303 302 303 302 303 303 302 302 302 302 304 305 303 305 306 307 309 311 315 315 315 317
293 292 294 295 294 294 295 296 297 298 299 300 301 301 301 303 301 301 302 303 303 303 303 303 304 303 303 303 303 303 303 303 303 303 302 302 302 304 307 310 313 316 317 316 316
293 293 293 293 292 293 293 296 298 301 300 300 301 301 302 302 301 302 302 302 302 302 302 302 303 303 301 303 303 302 302 303 302 302 302 302 303 308 314 315 317 316 316 318 317

GFSSW_850_thetae_114.txt.gz
Theta_e
299 299 299 299 299 299 299 299 300 300 300 300 300 300 301 301 302 303 305 307 306 307 307 309 313 313 312 314 315 315 310 310 312 312 312 314 314 316 316 316 316 317 318 318 318
300 300 299 299 299 299 299 299 299 299 299 299 300 300 300 300 302 304 307 307 307 312 307 308 312 315 313 315 316 311 309 310 311 310 312 314 314 315 314 314 316 317 319 318 317
300 299 298 298 298 298 298 298 298 298 299 299 299 300 300 300 302 305 313 312 309 309 311 312 313 314 314 315 315 312 312 310 312 313 315 312 312 315 314 312 316 317 319 318 317
300 298 297 297 298 298 298 298 298 298 298 298 298 299 299 299 301 310 311 309 309 310 311 311 312 312 312 313 315 312 311 312 313 315 314 312 315 313 315 315 318 318 319 318 318
299 298 298 297 297 298 298 298 298 298 298 298 298 298 298 299 301 303 306 310 310 308 308 310 313 311 310 310 312 313 313 315 315 316 317 316 313 314 313 317 318 318 318 318 318
297 297 297 297 297 297 298 298 298 298 298 298 298 298 299 299 302 303 306 306 304 306 308 309 312 314 313 313 313 314 313 314 315 315 315 314 313 314 316 318 317 317 317 318 318
297 296 296 296 296 297 298 298 298 298 299 299 299 300 300 300 302 302 302 308 308 308 308 308 308 308 309 309 311 311 310 310 310 312 312 315 313 312 317 318 316 317 318 318 318
297 296 296 296 296 296 297 298 298 299 299 300 303 303 301 302 301 302 303 303 307 308 308 308 308 308 307 308 308 309 309 310 312 311 313 314 316 316 316 314 314 313 313 317 316
297 296 296 295 295 296 297 297 298 299 301 304 305 303 301 303 308 309 307 307 306 306 307 308 309 306 306 306 307 306 309 309 310 312 313 312 314 310 313 311 310 311 312 314 314
297 295 295 296 295 295 296 297 299 301 302 304 307 307 304 305 308 310 309 308 307 308 308 308 306 302 301 305 308 309 308 307 309 310 309 309 308 306 308 308 309 310 312 313 314
295 296 296 295 295 296 297 298 300 301 300 299 300 301 301 302 303 304 305 305 306 306 306 308 304 301 302 306 308 308 307 307 307 307 306 307 305 303 305 306 307 311 312 313 314
297 296 295 294 295 298 302 301 298 298 299 300 299 300 299 301 302 302 302 303 305 305 306 306 308 305 303 304 305 305 305 306 305 305 304 303 304 305 306 307 310 311 312 313 314
296 295 294 294 295 296 300 300 300 300 300 300 300 301 302 302 302 303 302 303 304 305 305 305 305 307 308 305 304 303 303 304 305 305 305 305 308 309 308 308 312 313 313 313 313
296 294 294 294 296 295 298 298 300 301 300 299 303 305 304 302 303 307 302 303 304 303 304 305 305 305 311 311 309 310 307 308 309 306 309 310 310 310 310 310 310 311 312 313 317
294 293 294 294 295 296 296 297 299 302 295 300 305 303 301 305 304 308 305 302 302 306 306 304 308 307 306 308 311 311 309 308 308 308 309 309 309 308 309 309 309 309 312 319 321
294 293 293 294 294 294 295 296 299 293 294 299 302 300 300 302 303 303 305 303 303 303 306 305 307 308 309 310 310 309 309 309 309 308 310 308 308 308 308 310 310 312 319 320 320
293 293 294 294 293 294 295 299 292 294 297 299 300 299 299 301 302 301 303 305 307 308 308 308 307 308 308 308 307 307 307 308 306 312 309 309 309 309 309 309 317 318 320 320 319
293 293 293 293 294 294 296 296 294 296 298 299 298 298 300 299 300 301 301 301 302 303 309 310 310 307 307 308 308 306 307 309 308 308 307 310 310 310 311 315 317 317 318 319 319
293 293 293 296 295 295 298 295 295 298 299 299 298 298 300 299 299 300 300 300 301 301 302 310 310 308 307 309 310 309 309 308 308 307 310 307 308 308 312 314 315 315 317 316 315
293 292 296 296 296 296 293 296 297 298 298 298 298 300 299 298 298 298 300 302 301 301 301 304 309 305 307 310 306 310 310 309 309 312 311 308 311 310 316 317 316 315 315 314 313
293 293 296 298 297 296 290 295 297 298 299 300 300 299 299 299 298 299 300 301 302 301 301 302 302 305 305 305 305 308 310 311 312 311 314 314 308 313 310 316 316 314 316 316 315
293 285 295 295 296 296 295 297 298 298 297 299 299 299 299 299 299 299 299 300 301 302 301 302 302 304 302 303 304 310 311 311 311 313 312 313 311 310 306 307 309 316 317 317 315
293 293 293 294 286 286 293 297 297 297 296 300 300 299 299 299 300 300 300 301 301 302 302 303 304 301 303 306 303 306 303 308 309 309 310 310 309 308 305 305 305 314 316 316 316
293 286 293 295 294 295 294 295 297 297 297 298 299 299 299 299 299 300 301 301 302 303 305 305 303 302 301 303 302 301 302 302 307 304 305 308 305 303 303 304 303 305 313 316 316
293 287 292 290 291 295 294 295 295 295 297 298 299 299 300 301 301 301 301 299 301 304 303 303 302 301 302 302 302 301 302 301 301 303 303 301 300 301 301 302 303 304 312 315 314
292 292 293 293 294 294 293 294 295 295 298 298 300 300 301 301 301 302 301 301 300 302 302 302 303 303 302 302 302 302 302 301 302 302 301 301 301 301 302 302 302 309 314 315 314
292 293 292 292 292 293 292 293 296 296 299 299 300 300 301 301 300 301 301 301 300 301 301 301 301 303 301 302 302 301 300 301 301 301 301 302 302 301 301 304 313 315 316 316 315

GFSSW_850_thetae_120.txt.gz
Theta_e
300 299 299 299 299 299 299 299 299 299 299 300 300 300 300 301 303 303 305 306 304 305 306 305 307 314 315 316 316 316 319 321 321 319 320 317 318 318 318 318 318 318 319 320 321
299 298 298 298 298 298 298 299 299 299 299 300 300 300 300 300 302 304 308 311 311 311 306 311 312 314 315 316 316 317 320 321 321 319 319 317 318 318 318 318 318 318 319 320 319
298 298 298 297 298 298 298 298 298 298 299 299 299 300 300 300 302 305 311 311 310 307 308 312 312 313 314 316 317 317 319 320 318 316 317 317 317 317 317 318 318 319 319 320 320
297 297 297 297 297 298 298 298 298 298 298 299 299 299 299 299 307 307 306 310 309 309 311 312 312 313 314 316 316 317 317 317 317 317 317 318 317 318 318 318 318 319 319 319 319
297 297 297 297 297 298 298 298 298 298 299 299 299 300 300 304 303 302 302 302 303 308 312 313 314 314 316 316 316 317 317 317 317 317 317 317 318 318 319 319 318 318 319 319 320
296 296 297 297 297 298 298 298 298 298 299 299 299 300 302 305 304 302 302 302 306 307 310 312 313 314 314 315 316 316 316 316 316 316 316 317 318 318 319 319 319 319 319 319 319
296 296 297 297 297 298 298 298 298 298 299 299 300 302 304 305 304 302 301 301 302 306 310 309 311 312 312 314 313 314 315 316 316 317 318 318 319 320 319 319 319 318 318 318 317
296 296 296 296 297 297 297 298 298 299 299 299 300 303 307 305 303 309 308 308 308 306 304 308 309 310 311 311 312 313 315 316 317 316 316 317 319 320 319 318 318 316 314 314 315
295 295 295 296 296 297 297 298 298 298 299 301 306 306 308 304 308 306 306 307 307 310 305 307 308 308 309 310 311 311 313 315 315 316 317 318 319 319 318 315 315 314 313 313 314
295 295 295 295 296 297 297 298 298 300 300 299 303 306 305 303 302 302 302 304 306 307 309 306 308 310 310 311 310 311 312 312 314 316 316 317 318 318 316 315 315 313 312 313 314
294 294 295 295 295 296 296 298 301 303 300 300 300 301 302 303 304 304 304 304 306 307 310 308 308 309 310 310 310 310 310 311 313 314 314 315 316 316 315 314 312 311 314 314 315
294 294 294 294 295 295 296 299 298 297 302 299 301 301 302 302 304 304 304 304 305 307 308 311 309 308 309 309 310 310 309 309 310 312 312 313 313 313 313 313 313 314 314 315 315
293 293 293 294 295 295 295 296 297 299 302 302 302 303 301 303 305 303 304 305 307 307 307 309 310 311 311 310 310 310 310 310 309 310 309 310 311 312 314 314 313 314 314 314 316
292 293 293 294 295 294 297 294 296 299 305 301 306 302 300 301 304 303 304 305 308 307 307 308 309 309 309 310 311 311 311 309 308 309 310 312 313 314 314 314 315 314 315 318 321
292 293 293 294 294 296 294 294 298 301 301 302 303 300 299 301 301 302 304 305 307 308 308 308 308 308 308 309 309 310 310 310 310 310 310 312 313 313 313 314 313 315 319 321 322
292 292 293 293 293 293 294 295 299 303 299 301 301 300 300 301 301 301 302 304 305 306 308 310 309 307 308 308 308 309 309 311 312 312 313 313 313 313 313 314 313 319 320 320 319
292 292 293 293 295 293 294 299 301 299 299 300 300 299 299 301 300 300 300 304 304 305 309 309 311 309 309 308 310 308 310 312 312 313 313 311 311 312 313 315 318 319 319 318 318
292 292 293 293 293 293 295 300 298 298 300 300 299 298 299 300 300 300 300 300 304 304 305 307 311 310 307 308 309 310 311 310 311 312 312 312 311 314 318 317 316 316 316 317 318
292 292 293 293 293 294 298 298 299 299 299 299 299 298 299 299 300 300 300 300 303 304 304 305 307 310 309 310 308 309 312 312 311 311 310 312 316 318 316 314 313 314 314 317 317
292 296 297 294 294 296 299 298 299 298 299 299 299 299 299 299 300 300 300 300 301 303 303 305 305 307 308 310 312 310 310 310 310 311 310 310 313 314 315 311 308 307 307 310 313
292 298 295 294 296 298 300 298 298 298 297 298 298 299 299 300 300 300 300 301 301 302 303 303 305 306 307 309 310 313 313 312 312 311 311 312 312 315 314 311 308 307 306 306 309
293 299 294 294 299 299 299 298 296 297 297 297 299 300 300 300 300 300 300 301 301 302 303 303 304 306 306 307 308 309 312 314 317 314 313 313 313 314 314 311 308 307 306 306 306
296 295 294 296 300 298 297 297 297 298 298 298 298 298 299 299 299 299 300 301 301 302 303 304 303 303 304 308 308 307 306 307 309 312 314 314 313 315 314 311 308 306 305 305 305
295 298 296 296 296 297 296 296 296 295 296 296 297 299 300 300 300 300 301 301 301 301 302 302 303 303 303 306 305 304 304 305 305 308 310 311 311 310 308 307 307 305 305 305 305
294 296 295 298 297 296 296 295 296 297 297 297 299 300 300 301 301 301 301 302 303 302 302 303 302 301 301 302 302 303 304 304 304 304 305 307 306 306 306 306 305 304 305 305 307
295 296 294 295 295 295 295 296 296 297 297 299 299 300 301 301 302 303 302 303 303 302 302 303 302 302 301 301 302 303 303 303 304 304 305 305 305 306 305 304 304 304 305 306 309
292 293 295 294 295 296 297 296 296 297 298 298 299 300 300 300 299 299 300 301 302 304 304 304 302 302 302 301 301 301 302 302 303 303 304 304 305 305 304 305 305 305 305 310 314

GFSSW_850_thetae_126.txt.gz
Theta_e
301 300 300 299 299 299 299 299 300 300 300 301 301 301 302 302 305 305 309 311 310 310 311 308 308 315 316 319 320 320 322 323 323 323 324 324 325 322 321 321 321 323 323 324 324
300 299 299 299 299 299 299 299 299 300 300 300 300 301 301 302 305 308 313 312 310 311 311 310 310 313 316 316 317 320 322 322 323 324 324 324 325 322 322 321 321 322 322 321 323
299 299 298 298 298 298 299 299 300 300 301 301 301 301 302 303 309 313 309 310 307 305 306 313 314 313 316 317 318 320 321 321 322 323 323 323 324 323 322 322 321 321 321 321 321
298 298 298 298 298 298 299 300 300 300 300 301 301 301 301 303 314 312 309 307 306 304 311 314 316 315 317 317 318 319 321 322 322 322 322 322 322 322 321 321 322 321 321 321 321
297 297 298 298 298 299 299 300 300 300 300 300 300 300 300 311 312 308 306 306 305 310 310 313 315 316 317 317 317 319 319 319 320 321 321 320 321 321 321 321 321 321 321 321 321
297 297 297 298 298 298 299 299 299 299 299 299 299 299 301 310 310 308 307 306 306 306 309 312 313 315 317 318 318 318 319 319 319 320 320 320 321 320 320 320 321 321 322 321 321
297 297 297 298 298 298 298 298 298 298 299 299 299 299 309 308 309 309 308 309 310 309 307 307 311 312 315 317 317 317 319 319 320 319 320 320 320 320 320 319 320 320 321 321 321
297 297 297 297 297 298 298 297 298 298 299 299 300 306 311 310 307 308 309 308 308 311 311 311 309 308 310 312 313 316 317 318 318 319 319 319 320 320 320 320 321 320 321 321 322
296 297 297 297 297 297 297 297 298 299 301 302 314 313 312 308 309 307 307 307 307 307 307 311 311 309 308 311 313 314 316 317 318 319 319 320 320 320 319 319 321 321 321 321 321
296 296 296 296 297 297 298 299 303 302 307 308 310 309 310 307 307 308 308 308 308 307 308 310 312 309 309 310 313 314 314 315 317 317 317 317 317 318 319 319 320 321 321 321 321
296 296 296 296 296 297 298 305 307 310 306 306 306 306 306 306 309 308 308 309 309 309 310 311 313 312 310 311 312 313 313 313 315 315 315 314 316 317 318 319 319 321 321 319 319
295 295 296 296 296 296 302 304 302 303 306 305 305 307 305 305 307 306 305 307 309 311 312 311 311 313 314 313 312 312 313 314 315 314 314 313 315 315 315 316 316 315 319 319 318
295 295 295 295 296 300 301 301 301 303 307 307 306 307 304 304 305 307 304 305 307 309 311 312 312 312 312 313 313 313 313 313 312 313 314 313 314 314 314 314 314 314 314 318 317
294 294 294 295 302 302 305 300 301 303 313 307 308 306 303 303 306 305 304 304 305 307 308 309 311 312 311 312 312 312 312 313 313 313 312 313 313 313 313 313 314 314 313 315 316
294 294 294 296 303 303 302 300 302 307 314 306 306 303 303 303 303 305 303 303 304 304 304 306 307 308 309 312 312 312 313 312 313 313 313 313 314 314 314 314 314 314 315 315 317
293 293 294 298 298 302 299 295 305 314 309 305 304 304 304 303 304 304 303 304 304 304 305 305 307 308 308 309 311 312 311 312 313 313 314 313 313 314 314 314 316 317 316 318 321
293 293 294 299 305 302 295 306 311 309 304 305 304 303 303 303 304 304 304 304 304 303 303 305 306 307 308 309 312 312 311 312 316 315 316 313 313 314 314 315 317 316 317 321 320
293 293 295 301 301 298 304 307 309 304 304 304 303 303 303 303 303 304 304 304 305 304 303 302 304 307 311 312 313 313 312 314 311 313 315 314 316 315 315 315 317 317 320 319 319
293 297 303 302 294 297 306 309 306 304 303 302 302 303 304 304 303 303 304 304 303 303 302 303 304 305 306 307 310 314 314 314 315 314 314 314 315 316 316 316 320 320 320 319 319
301 303 301 294 294 305 308 303 304 302 301 301 302 302 302 302 302 303 303 304 303 303 303 303 303 304 304 305 307 311 312 315 315 316 314 313 314 318 317 317 319 319 318 318 317
301 304 300 295 302 307 309 303 302 301 300 300 301 301 301 302 303 303 302 302 303 303 303 302 303 304 305 303 304 310 311 311 313 317 314 315 314 317 318 317 318 316 313 311 310
301 308 296 302 307 304 304 302 299 300 300 301 301 302 301 301 301 301 301 301 302 302 302 302 304 304 304 305 307 307 311 313 311 314 313 315 315 315 316 317 315 311 310 309 309
303 300 299 304 309 305 301 301 300 301 301 300 300 300 300 301 302 302 303 303 303 304 302 303 305 305 305 305 307 308 307 308 309 311 312 316 316 316 316 315 313 311 309 308 308
301 307 301 302 302 304 302 301 300 299 299 299 300 301 302 302 302 302 302 303 302 303 304 305 303 302 304 304 306 304 304 305 308 309 309 309 312 314 314 314 313 311 308 307 307
303 305 304 305 302 302 302 300 300 300 300 300 301 302 301 302 302 302 302 302 302 302 303 305 304 302 303 304 303 302 302 303 304 308 308 308 308 309 307 309 312 311 307 306 307
299 301 301 301 300 301 298 301 300 300 300 301 301 301 302 302 303 302 302 302 302 302 304 304 305 305 306 305 304 303 304 303 303 304 306 306 306 307 309 308 308 307 307 307 308
299 300 302 299 302 302 302 300 300 300 300 300 301 302 301 301 300 301 301 302 303 304 304 304 304 304 304 303 303 303 303 303 302 303 304 305 305 307 306 308 309 309 309 309 308

GFSSW_850_thetae_129.txt.gz
Theta_e
303 302 301 301 301 301 301 300 300 301 301 301 302 302 303 304 305 305 307 309 311 311 310 309 310 308 313 316 318 319 317 318 317 318 319 321 322 323 322 321 321 322 323 326 328
301 300 300 300 300 300 300 300 300 300 301 301 302 302 303 304 305 311 312 311 312 311 310 311 310 309 309 315 316 315 316 318 318 318 319 321 322 321 321 320 320 323 323 324 325
300 299 299 300 299 299 299 300 301 301 301 302 302 302 302 303 305 312 310 309 308 306 306 307 314 314 312 313 315 315 315 316 318 319 320 320 320 321 319 317 320 321 322 322 322
300 299 298 298 299 299 300 300 301 301 301 301 301 301 301 301 311 311 309 308 307 306 308 309 314 315 313 312 315 314 315 317 317 318 319 319 321 319 319 319 321 321 321 321 321
299 298 298 298 298 299 299 300 300 300 300 300 299 299 300 306 309 311 307 307 307 306 307 311 311 313 314 314 314 314 314 316 318 318 318 320 319 319 319 320 320 320 320 321 321
298 298 298 298 298 298 299 299 299 299 299 299 299 299 299 308 310 309 309 308 308 308 307 307 309 312 312 313 313 316 316 316 317 317 317 317 318 319 319 320 320 320 320 320 320
297 298 298 298 298 298 298 298 298 299 299 299 299 299 300 302 308 309 309 309 309 310 311 310 307 308 307 308 312 313 311 313 314 317 316 318 316 317 319 320 320 319 319 319 320
297 297 297 297 298 298 298 298 298 299 299 300 300 303 306 310 309 310 308 308 308 308 308 308 310 311 311 308 308 310 310 312 314 315 316 317 316 317 319 319 319 319 319 319 319
297 297 297 297 297 297 298 298 299 300 305 305 313 312 313 308 308 307 307 307 307 308 308 307 307 312 311 306 304 309 310 311 312 313 315 315 316 317 318 319 318 319 319 319 320
297 296 296 297 297 297 297 298 301 304 307 308 310 312 310 306 307 308 308 308 309 308 307 308 309 308 305 303 304 308 309 311 312 312 314 315 315 313 315 315 315 314 316 318 320
296 296 296 296 296 296 298 305 306 309 308 309 306 307 306 306 308 308 305 306 307 309 307 308 306 309 307 305 307 307 308 309 310 311 310 311 312 311 313 314 313 313 314 314 320
296 295 296 296 296 297 302 303 301 303 303 305 305 306 305 305 305 306 305 304 304 305 306 308 307 308 310 311 311 310 309 309 310 310 311 311 312 309 311 313 313 313 313 314 315
295 295 295 296 296 302 303 300 301 300 305 308 305 307 305 303 304 304 305 304 303 302 303 304 307 309 311 310 310 310 311 311 311 310 309 309 309 310 311 313 313 313 313 313 314
295 295 295 295 300 303 304 302 298 298 309 308 306 306 304 303 303 304 303 303 303 302 302 303 306 304 305 306 308 308 310 311 310 309 310 311 310 310 310 311 312 313 312 313 315
294 294 294 295 303 303 302 302 299 308 316 307 306 304 303 303 303 304 304 303 303 303 302 302 302 302 303 305 306 306 307 309 310 309 309 310 311 311 310 311 311 312 312 313 315
294 294 294 296 298 303 302 295 307 310 312 304 304 304 303 303 303 304 304 304 304 304 303 302 304 302 303 306 307 307 307 308 309 308 310 311 310 311 310 311 312 312 313 313 314
293 293 295 300 304 304 299 307 309 312 305 304 304 303 302 302 303 303 303 302 302 302 302 303 302 302 307 306 307 307 311 312 311 309 311 311 312 312 311 311 312 312 318 315 318
293 293 295 299 302 302 304 305 309 305 305 304 303 302 302 303 303 303 302 302 303 302 300 301 301 302 303 303 304 306 312 315 316 314 311 312 313 312 311 311 313 313 319 319 318
293 294 298 298 295 297 305 306 303 303 302 301 302 302 303 304 302 302 302 302 302 302 301 301 301 302 303 303 302 304 307 311 314 314 316 311 311 310 311 312 313 313 319 319 319
300 303 302 299 294 305 305 304 303 302 301 301 301 303 301 301 301 302 302 303 301 302 302 302 302 302 302 303 304 307 309 310 313 316 316 313 310 311 312 319 316 317 318 318 318
303 303 301 294 301 307 305 301 302 301 300 300 301 301 302 301 301 300 301 301 303 303 302 301 302 301 302 302 303 304 307 309 311 312 313 316 311 315 314 315 316 313 316 314 313
302 302 296 301 306 307 301 302 299 300 301 301 301 301 300 300 300 301 302 303 303 303 303 302 303 302 303 303 305 306 308 311 311 311 309 310 313 309 309 312 311 310 311 310 308
303 297 297 305 303 301 301 301 301 301 300 300 300 300 300 301 301 302 302 302 302 303 303 304 303 303 301 304 304 304 305 306 309 309 308 311 313 309 309 308 311 311 310 307 307
302 300 301 302 302 303 302 301 300 299 299 299 299 301 302 301 301 301 302 302 301 301 303 303 303 303 303 302 303 305 305 304 307 308 307 308 308 310 309 308 308 310 310 309 307
304 303 303 301 300 301 302 300 300 300 300 299 301 301 301 301 301 301 301 301 301 301 303 304 303 304 303 303 304 304 304 303 303 303 307 307 307 308 308 308 307 308 309 310 309
301 301 302 302 301 300 299 300 300 300 300 301 301 301 301 301 299 299 300 300 301 302 302 303 302 304 304 304 305 303 302 303 303 303 302 305 306 307 307 308 308 308 311 312 311
300 301 302 300 300 300 299 300 301 300 300 300 299 300 301 300 300 300 300 301 301 302 304 304 303 303 303 303 303 303 304 305 305 303 304 305 308 307 308 308 308 307 307 307 307

GFSSW_850_thetae_132.txt.gz
Theta_e
307 306 305 305 304 303 302 301 301 301 301 302 302 303 303 304 305 307 311 309 310 311 310 310 310 310 309 314 317 317 313 315 317 316 317 318 318 320 321 321 321 322 323 327 330
306 304 303 303 303 302 300 300 300 301 301 302 302 303 303 304 305 311 311 311 311 311 310 306 308 310 308 313 315 313 313 316 315 315 316 319 319 318 320 320 320 321 323 326 330
306 303 302 301 301 300 300 300 301 301 302 302 302 302 303 303 304 312 308 308 307 306 306 306 310 313 313 311 312 312 314 315 315 316 317 317 318 319 318 318 320 319 323 329 332
305 303 302 300 299 299 300 300 301 301 301 301 300 300 300 301 307 309 308 307 307 306 307 309 311 313 312 311 313 310 312 313 314 315 315 315 317 316 317 319 321 321 320 321 324
303 302 301 299 299 299 300 300 301 300 299 299 299 299 299 301 304 309 308 308 308 307 306 306 308 311 311 312 312 311 312 313 314 315 315 316 315 316 317 318 320 320 320 320 319
302 301 300 299 299 299 300 300 300 299 298 298 299 299 299 304 307 308 309 308 308 308 309 309 308 308 307 308 309 312 312 312 313 313 314 314 314 315 316 318 319 320 320 320 320
302 301 300 299 299 299 299 299 298 298 298 298 299 300 300 301 308 308 308 308 308 308 307 310 310 310 309 308 308 308 308 308 310 312 313 315 314 314 317 318 318 318 319 319 319
301 300 300 299 299 299 299 298 298 298 300 300 301 306 303 309 308 309 308 307 307 307 308 307 308 307 310 310 307 306 306 308 312 311 312 314 315 314 317 317 317 318 318 318 318
300 299 299 299 298 298 298 298 298 299 305 305 312 312 312 309 307 307 307 308 307 308 308 308 307 307 311 308 303 304 305 307 309 311 310 311 312 313 316 316 315 316 316 315 315
298 298 298 298 298 297 297 298 299 302 303 307 309 311 308 306 306 308 305 305 305 307 308 308 307 308 304 303 303 304 306 308 307 309 308 307 309 311 313 313 313 314 315 316 315
299 298 297 297 297 296 297 301 304 308 306 309 307 310 306 305 307 305 305 305 304 306 306 307 305 306 307 305 305 304 304 304 305 307 308 308 309 309 310 311 311 311 313 313 313
299 297 296 297 296 297 299 302 301 302 302 304 305 305 305 305 303 305 304 304 303 301 302 301 304 306 306 308 308 306 305 305 307 307 307 307 307 308 308 309 312 313 312 313 313
298 297 295 295 296 301 301 299 298 298 302 305 305 305 306 303 303 303 303 303 302 301 301 300 302 303 303 302 304 304 307 308 307 307 307 307 307 307 308 309 312 313 313 313 313
297 296 295 294 296 302 303 303 299 297 306 309 306 306 306 303 302 303 303 303 302 301 301 300 302 302 301 301 302 303 305 305 305 304 306 309 309 310 309 308 309 311 312 312 312
296 295 295 294 303 303 303 303 297 305 304 307 306 305 303 303 303 303 303 303 303 302 302 301 301 301 300 301 302 305 306 306 306 304 306 307 307 309 309 309 308 308 312 312 312
295 294 293 295 302 303 302 296 302 304 306 305 303 303 302 302 302 303 303 303 303 302 302 301 302 301 301 302 303 305 307 308 307 305 307 308 308 308 309 309 309 310 311 312 312
294 293 293 299 300 300 299 305 306 308 306 303 303 302 301 301 303 302 302 301 301 300 300 300 302 301 302 301 302 301 307 310 310 308 307 308 309 308 309 309 309 309 311 311 313
294 293 299 301 302 304 301 303 308 308 304 302 301 301 301 302 302 302 301 300 301 300 299 300 300 300 302 302 301 300 309 307 311 311 314 311 311 310 310 311 313 315 312 312 314
293 293 296 297 298 299 305 305 304 303 302 300 301 301 302 302 301 301 301 300 300 301 301 301 301 301 301 301 302 302 302 304 308 307 309 310 310 309 311 311 313 313 314 315 316
293 296 298 298 294 303 304 304 301 301 300 301 301 301 300 301 301 300 300 302 303 303 301 301 301 301 301 301 301 302 302 305 305 303 308 314 313 313 311 310 310 312 313 311 316
302 303 301 296 299 307 302 300 301 300 300 300 301 300 301 300 300 300 300 302 303 303 302 301 300 301 301 300 301 303 304 305 307 308 309 310 313 310 309 310 309 311 312 310 309
303 298 300 299 304 304 299 302 300 300 300 301 301 300 299 299 300 302 302 303 302 302 302 302 302 302 301 301 304 303 305 306 307 308 309 310 310 309 308 308 307 306 307 308 309
301 296 297 304 301 297 300 300 300 300 299 299 299 300 299 300 300 301 301 302 301 301 302 302 302 299 300 301 303 303 303 304 306 307 307 307 305 308 307 307 305 306 306 309 309
301 298 301 302 302 300 301 301 299 298 299 298 299 300 300 300 300 300 301 301 300 300 302 303 302 303 302 303 302 303 303 303 304 306 305 305 304 307 308 307 305 307 308 311 311
305 300 301 300 299 300 300 300 300 300 300 299 301 301 301 300 300 300 300 299 300 301 303 302 302 302 303 303 303 304 304 302 302 302 304 303 304 307 308 308 307 307 309 308 307
301 301 302 301 300 299 300 300 301 300 299 301 300 300 300 301 298 298 299 299 300 301 301 302 298 300 302 302 302 302 303 304 305 306 304 306 308 306 308 308 308 307 306 306 305
300 301 301 299 298 297 298 300 301 300 300 300 299 298 300 299 299 299 299 299 299 300 301 304 304 303 303 302 302 304 302 304 305 305 307 306 305 304 305 308 305 304 304 303 302

GFSSW_850_thetae_135.txt.gz
Theta_e
315 313 310 307 307 305 304 304 302 301 301 302 302 303 303 304 306 308 310 311 310 311 311 310 310 310 309 311 317 317 314 315 317 318 317 318 317 318 319 319 319 319 320 324 329
316 313 308 306 305 305 303 301 301 301 302 302 303 303 303 303 305 309 309 310 309 311 311 306 306 310 308 309 312 312 311 314 314 316 315 317 316 317 317 317 318 319 320 326 330
317 315 310 305 304 303 301 301 301 302 302 302 303 303 302 302 305 311 307 307 306 306 308 307 307 312 312 309 310 311 314 314 314 316 315 314 315 316 316 315 317 318 319 320 328
319 316 312 308 305 302 301 301 301 302 302 302 301 301 300 300 306 309 306 308 308 306 306 308 310 312 311 310 311 308 310 310 311 312 313 312 315 314 314 315 317 318 318 319 321
319 316 311 305 303 301 301 301 301 301 300 300 299 300 300 300 303 308 308 308 309 308 308 307 307 308 310 310 310 309 310 312 312 313 313 314 312 313 314 315 316 318 318 319 320
318 314 308 303 301 300 300 301 301 300 299 299 299 299 299 301 303 308 309 309 309 309 309 309 309 308 307 307 307 308 307 307 309 311 311 311 312 313 315 316 317 317 318 318 319
317 311 304 301 300 299 300 301 301 299 298 299 299 299 300 301 307 308 308 308 308 308 308 308 309 309 309 308 308 307 305 305 307 311 311 313 312 312 315 316 316 317 318 318 318
312 306 302 299 299 298 299 299 299 299 298 301 303 305 304 309 308 309 309 307 307 307 307 308 307 307 307 309 309 306 306 307 310 308 310 312 312 313 315 314 315 315 316 316 317
307 307 303 299 299 298 298 298 298 298 299 305 309 311 309 310 307 306 307 306 305 306 307 308 307 307 308 306 303 302 304 305 306 308 308 309 309 311 312 311 311 313 314 314 315
312 304 299 298 297 298 297 298 299 300 302 303 308 308 307 306 305 307 304 305 305 308 308 307 307 306 304 303 306 305 304 305 306 307 306 304 306 308 309 310 310 312 312 313 314
312 301 299 297 297 297 297 299 303 305 304 306 308 309 306 304 305 305 304 304 304 303 302 305 305 305 305 305 306 304 303 303 305 304 306 305 306 307 308 307 308 310 312 313 313
309 300 299 297 296 296 297 301 302 302 302 306 307 306 305 305 303 303 304 303 302 300 300 299 300 304 301 302 303 306 305 304 304 304 304 304 305 306 307 306 309 309 310 311 312
304 300 298 296 295 296 300 299 298 298 299 302 303 304 305 305 303 302 303 302 301 301 300 300 300 301 301 300 301 301 304 304 304 303 304 304 305 306 307 307 309 310 311 312 312
303 299 297 294 295 300 301 301 299 297 301 306 306 305 306 303 302 303 302 302 301 301 301 300 301 301 300 300 300 301 304 305 304 303 304 306 304 305 306 306 307 308 310 311 312
301 299 295 294 301 301 301 303 298 304 299 306 305 305 303 302 302 303 303 303 302 302 301 301 301 300 300 301 301 303 302 306 307 305 304 305 304 306 306 307 306 306 310 311 311
301 298 294 294 302 302 302 300 300 302 301 306 302 302 302 302 302 303 303 303 302 302 300 301 301 300 301 301 301 301 301 304 306 304 305 305 304 305 305 307 309 311 313 314 314
302 296 293 294 301 302 299 302 302 304 305 302 302 302 301 301 302 301 301 300 299 299 299 299 300 300 301 300 300 300 302 303 305 307 306 306 305 307 309 311 310 312 312 311 312
299 294 293 297 299 300 300 303 306 305 303 301 301 301 301 301 301 301 300 299 300 299 298 300 300 300 300 301 301 300 303 301 303 304 304 304 305 306 307 308 310 312 310 309 312
295 293 294 299 300 303 304 303 301 302 301 300 301 301 301 302 300 300 299 299 301 301 300 300 301 299 301 301 300 300 300 302 302 304 305 304 305 308 308 307 308 310 309 308 310
293 292 296 299 298 300 303 305 300 300 300 300 300 301 300 299 299 299 300 302 302 302 301 300 300 300 301 300 300 300 300 301 301 301 303 301 306 308 309 309 308 307 305 308 309
293 298 298 299 296 305 302 298 299 300 300 300 300 300 299 299 299 299 301 302 302 301 301 300 300 300 300 300 301 303 303 303 302 304 306 307 306 309 308 308 309 308 306 308 307
299 300 301 295 304 303 298 300 300 300 300 300 300 299 299 300 300 301 301 301 301 301 301 301 301 302 300 300 301 302 302 303 300 300 306 307 307 308 308 306 307 307 308 309 308
301 299 299 303 302 298 299 300 299 299 299 299 299 299 300 299 299 301 301 301 300 299 300 301 301 299 300 299 302 301 303 303 305 305 306 306 305 306 306 306 307 308 308 308 308
297 297 299 301 303 299 299 300 299 298 299 298 300 300 299 299 300 300 300 300 299 299 301 303 301 301 301 301 300 302 302 303 304 304 305 305 303 306 307 307 308 307 308 305 304
301 298 301 300 299 298 299 300 299 299 299 300 300 300 300 300 300 300 299 298 299 300 302 301 300 301 301 301 302 302 302 303 304 304 305 305 305 306 307 308 308 307 305 304 302
303 300 301 299 300 299 300 300 300 300 300 300 300 301 300 300 298 298 298 298 299 300 300 301 299 300 302 302 302 302 301 302 304 304 305 304 305 303 304 306 305 303 303 302 301
301 301 301 298 297 299 299 300 300 299 300 299 298 297 299 299 299 298 298 298 299 299 299 301 302 303 303 302 302 304 300 302 303 302 303 304 303 302 302 304 302 301 300 299 298

GFSSW_850_thetae_138.txt.gz
Theta_e
319 318 317 315 311 307 306 304 302 301 302 303 303 304 304 305 307 309 309 310 310 311 309 310 309 309 309 310 316 318 314 314 314 315 315 317 316 317 318 318 318 318 318 318 319
321 320 317 314 309 306 305 302 301 301 302 303 303 304 304 304 306 308 308 309 308 310 311 307 305 309 309 308 312 312 310 313 312 315 315 316 315 315 315 316 316 317 318 317 319
322 321 319 315 308 305 303 301 301 301 302 303 303 303 303 302 304 309 306 306 306 306 307 308 306 311 311 307 310 310 311 311 314 315 315 313 313 313 314 312 315 315 316 317 317
322 322 320 315 311 304 301 301 301 301 301 302 302 301 301 301 306 308 307 308 308 307 306 306 310 311 310 310 310 308 308 310 310 312 311 309 312 312 312 313 315 316 316 317 317
321 322 320 315 311 305 301 300 300 300 301 300 301 300 300 300 302 306 307 308 309 308 308 308 307 308 309 308 307 308 309 308 308 308 310 311 310 311 312 314 315 316 316 317 318
321 321 320 315 310 303 301 300 299 300 299 299 299 299 300 299 302 308 308 309 309 309 309 308 308 308 307 305 306 307 306 306 307 308 309 309 309 310 313 315 315 315 316 317 317
320 319 319 313 307 302 300 300 299 300 299 298 299 300 300 302 305 308 308 308 308 308 308 308 307 308 308 307 308 308 305 304 306 308 307 310 309 309 314 314 314 314 314 315 316
319 319 319 312 305 300 299 299 299 299 298 298 303 305 304 308 308 308 308 307 307 307 307 307 307 307 306 308 308 306 304 305 306 306 308 309 308 310 311 310 310 311 312 312 314
319 316 317 310 303 300 299 299 298 298 299 299 304 309 306 310 308 306 307 305 305 305 306 307 307 306 307 305 304 302 304 304 305 306 306 308 307 308 309 308 307 309 310 311 312
320 318 315 307 300 299 298 298 298 299 300 301 302 305 305 307 305 306 304 304 305 307 307 306 306 304 302 303 304 305 304 304 304 305 305 303 305 305 307 307 307 308 310 311 311
319 318 312 304 298 296 297 298 301 303 303 303 306 306 307 304 305 305 304 304 303 302 300 302 303 304 303 303 305 304 303 303 303 303 303 302 303 304 304 305 305 308 309 310 311
318 316 310 300 298 296 296 298 300 301 300 301 304 308 307 304 304 303 304 303 302 299 300 298 298 302 300 301 300 300 303 301 302 303 303 301 304 305 303 304 307 308 309 310 311
314 310 308 300 296 296 297 300 299 298 299 300 302 306 305 305 302 302 303 302 300 300 300 299 300 301 301 299 299 299 301 301 303 302 301 301 303 303 305 306 306 308 309 308 309
312 310 305 298 295 296 299 300 299 297 299 301 306 304 304 304 301 303 302 302 301 300 301 300 300 300 299 300 300 301 300 302 304 303 303 303 304 304 303 303 305 307 311 312 312
312 311 306 296 298 299 300 301 299 301 298 304 304 304 305 302 302 302 302 303 301 301 300 301 300 299 299 300 300 301 300 300 302 303 303 301 301 303 302 309 310 309 311 311 311
312 309 304 299 297 299 301 303 300 299 300 306 302 302 301 301 301 302 302 302 301 300 299 300 300 299 300 300 300 300 299 300 303 302 304 303 303 303 308 309 309 309 311 308 309
310 308 303 296 296 301 302 297 299 299 304 302 302 301 300 300 301 300 300 300 299 300 299 299 299 299 300 299 299 299 299 299 300 305 302 301 301 304 307 307 308 309 309 308 308
308 303 297 293 300 302 298 303 299 301 303 301 300 300 300 300 300 300 299 298 300 299 298 299 300 299 299 300 300 298 300 299 300 301 300 299 300 300 306 306 308 308 307 307 309
305 302 293 296 302 301 304 300 299 303 301 299 300 300 300 300 299 299 299 299 301 300 299 299 300 299 300 300 299 299 299 300 301 300 301 300 300 301 304 304 307 308 308 306 308
304 295 293 299 301 301 301 302 300 299 299 300 300 300 299 299 298 298 300 301 302 301 300 299 299 299 300 300 299 301 300 301 300 294 299 297 300 305 305 306 307 308 307 308 308
299 296 296 299 302 301 299 301 299 299 300 300 300 299 298 298 298 298 300 301 301 300 300 300 299 299 300 299 298 301 302 302 301 301 304 304 302 306 307 307 307 307 308 309 306
296 300 299 300 301 301 300 298 300 300 300 300 299 298 298 299 299 300 300 301 300 300 299 300 300 301 299 299 299 301 301 300 299 302 303 305 303 306 306 306 306 307 306 305 302
298 300 300 299 297 295 298 299 299 299 299 299 298 299 300 299 299 300 300 300 299 298 299 300 300 298 299 298 301 301 302 302 303 304 302 303 304 304 305 307 307 304 303 300 300
298 298 299 301 302 297 300 300 299 298 298 299 300 299 298 299 299 300 299 300 298 299 300 302 300 300 299 299 298 301 301 301 303 304 302 303 303 305 304 305 304 305 304 302 301
298 298 298 299 298 299 299 300 299 299 299 300 300 300 299 300 300 299 299 298 298 302 301 300 300 300 300 300 300 300 301 300 303 303 304 305 306 303 303 304 304 302 301 300 297
300 299 300 300 301 299 300 298 299 299 299 300 300 300 299 299 298 299 298 297 298 299 299 299 297 298 301 301 301 302 300 300 303 302 302 304 305 301 300 301 301 300 299 296 295
301 301 301 299 297 298 298 300 299 299 299 299 299 298 299 299 298 298 298 298 298 299 299 300 301 302 302 301 302 302 300 300 301 300 301 302 301 300 300 301 298 297 296 294 293

GFSSW_850_thetae_141.txt.gz
Theta_e
320 321 320 319 317 312 309 307 304 303 302 304 305 305 306 307 308 307 310 310 310 310 308 308 310 309 309 311 316 317 317 316 316 316 317 316 318 317 317 317 317 317 317 317 317
322 322 321 318 317 314 309 306 304 303 303 304 305 305 304 304 305 309 308 308 309 310 310 308 306 308 309 308 313 316 317 316 315 316 317 317 316 316 315 316 316 315 316 316 316
322 322 322 320 316 312 308 305 303 302 302 303 304 304 303 302 304 308 306 306 306 306 307 308 307 309 310 307 310 312 314 314 315 315 315 315 314 313 313 314 314 314 315 316 316
321 321 321 321 319 313 307 303 302 302 302 302 303 302 301 301 306 308 307 308 308 308 307 306 309 311 312 312 308 309 309 312 310 311 309 310 311 312 313 313 313 314 315 316 316
321 320 321 321 319 313 307 304 302 301 301 301 301 300 300 300 302 306 307 308 309 309 308 308 307 307 310 309 307 309 310 308 308 308 307 309 310 311 312 312 314 314 315 315 316
321 320 320 320 319 316 308 303 303 301 301 300 299 299 300 300 302 307 308 308 309 309 309 309 308 308 308 306 307 306 307 308 307 308 308 309 310 309 311 313 312 313 313 313 314
322 321 319 319 320 317 309 303 302 302 301 300 299 300 302 302 303 307 308 308 308 308 308 307 307 308 308 308 307 308 308 307 308 307 309 308 310 311 311 309 309 310 310 310 311
322 322 321 320 319 314 309 303 301 301 303 300 299 303 304 304 304 307 308 308 307 307 307 306 307 307 306 307 307 308 306 308 308 307 308 309 310 310 309 308 308 308 309 310 311
322 322 321 320 318 311 302 301 300 300 301 300 299 304 305 307 308 306 307 306 305 305 306 306 306 306 307 307 308 306 308 306 307 307 307 308 309 309 308 307 307 308 308 309 310
322 322 320 319 318 310 301 298 298 300 300 300 300 302 302 307 305 306 304 304 305 306 306 306 306 306 305 308 308 307 305 305 305 307 306 306 307 306 306 306 306 307 308 309 309
323 321 319 318 315 306 301 298 300 302 302 301 305 302 307 304 304 304 304 304 303 303 303 301 307 307 303 303 305 304 304 304 304 304 305 306 306 306 306 305 306 307 307 307 307
319 319 317 315 310 301 299 298 299 300 300 300 303 303 306 306 304 302 304 303 302 301 301 301 302 302 301 301 301 301 302 303 304 305 305 306 305 306 306 306 306 307 310 311 312
318 317 316 313 302 298 296 298 299 298 298 299 299 303 304 304 303 302 302 302 300 301 301 301 301 301 301 301 302 301 301 302 302 304 304 305 304 305 305 308 309 309 310 311 311
316 316 315 313 310 298 299 299 299 297 299 300 304 304 305 304 301 302 301 302 301 301 300 301 300 300 301 301 301 302 301 301 301 302 302 304 302 304 307 310 309 308 309 310 310
315 315 313 314 301 297 300 300 300 301 305 304 304 304 304 302 302 302 302 302 302 301 301 301 300 300 301 301 301 302 301 300 301 302 303 303 303 304 309 309 308 308 309 309 309
314 313 312 310 300 299 300 301 299 301 300 305 303 301 301 300 301 301 302 302 301 301 300 300 299 300 301 300 300 300 300 300 303 304 302 302 302 304 308 308 308 308 308 308 308
313 312 312 311 303 304 302 301 302 301 303 302 302 301 301 301 301 301 301 301 300 301 300 300 300 300 300 300 300 300 301 300 300 304 302 301 301 303 304 306 307 308 308 308 308
313 311 309 308 300 301 301 304 300 300 304 300 300 300 301 300 300 300 299 300 301 299 300 300 301 300 300 300 299 300 300 300 299 300 300 300 299 300 305 305 306 307 307 308 308
311 307 303 301 299 301 300 301 302 302 301 300 300 301 301 300 300 300 300 301 301 300 301 300 300 300 300 300 299 300 300 301 301 301 300 300 301 301 305 306 307 307 307 307 304
310 303 295 297 301 301 303 299 299 299 299 300 301 300 300 300 300 300 301 301 301 300 300 300 298 300 300 300 301 301 301 302 302 300 299 300 301 304 307 308 307 308 305 303 301
307 298 295 301 302 301 301 299 300 299 300 300 300 300 299 299 299 299 301 301 301 300 300 301 300 299 300 300 299 302 303 303 304 303 302 304 303 307 308 306 307 304 301 300 299
300 299 297 299 301 301 301 301 299 299 300 299 299 299 299 299 300 300 301 302 300 300 300 301 301 299 299 300 299 301 303 303 303 303 305 305 303 306 306 306 305 302 302 300 299
299 298 300 300 301 301 301 299 299 300 300 299 299 299 300 300 300 301 301 299 298 299 300 301 301 299 300 300 301 302 302 303 303 304 304 304 303 304 303 304 304 302 301 299 297
299 300 299 300 300 300 300 300 299 298 299 299 300 300 300 300 300 300 300 300 298 298 301 302 301 300 299 299 300 301 301 302 303 304 303 303 303 305 302 302 303 301 300 298 296
299 299 299 300 300 299 300 300 299 299 299 300 300 300 300 300 300 300 299 298 299 303 301 302 302 301 301 301 301 301 302 302 302 303 304 303 304 302 301 301 302 299 297 296 295
298 298 298 297 298 300 301 300 300 299 301 300 301 300 299 300 301 300 299 299 300 299 300 300 301 301 301 301 302 302 301 300 302 304 302 302 303 300 299 299 299 297 296 294 293
300 298 299 298 301 300 300 300 300 300 299 300 300 300 300 299 298 298 297 298 299 300 301 301 301 302 301 302 302 303 301 300 300 300 300 302 301 299 299 298 297 295 293 292 291

GFSSW_850_thetae_144.txt.gz
Theta_e
321 322 323 323 321 319 316 313 310 308 307 306 306 307 308 308 308 308 310 311 311 310 308 309 310 311 312 315 317 317 320 322 323 322 323 320 320 320 319 319 319 319 319 319 318
321 322 323 322 322 321 318 314 310 307 306 306 306 306 306 307 305 309 309 309 310 310 309 309 310 310 312 313 315 317 320 321 320 320 320 319 319 319 318 318 318 318 318 318 318
321 322 322 322 322 321 318 315 312 308 306 306 306 306 306 305 306 310 307 306 306 307 308 309 310 311 313 313 314 317 319 319 318 317 317 317 316 316 316 318 317 317 317 317 317
320 320 321 321 321 321 318 315 309 307 306 305 306 305 305 304 313 309 307 308 308 308 307 310 311 312 314 315 313 314 314 314 315 313 313 314 313 314 315 316 315 315 316 316 317
320 321 320 320 320 320 319 315 310 306 305 305 305 304 303 304 304 307 307 308 309 309 309 310 310 311 314 314 313 314 314 313 313 311 312 312 313 314 314 314 314 314 315 316 316
321 321 321 320 320 321 320 316 310 306 305 304 304 303 301 306 302 303 306 308 309 309 309 310 310 309 311 311 311 311 311 311 311 312 312 312 313 313 314 313 312 312 313 313 313
324 323 322 322 321 321 320 315 312 307 303 303 304 301 302 305 302 306 307 308 308 308 309 308 309 310 311 312 310 311 312 313 312 311 312 311 313 314 313 311 312 312 312 312 313
324 323 322 322 321 321 318 310 307 305 303 302 301 300 307 304 302 305 308 309 308 307 307 307 307 308 309 310 311 311 310 311 312 311 311 311 312 314 312 311 311 311 311 311 312
323 322 322 323 322 321 318 311 306 303 302 301 302 306 308 306 308 307 307 307 307 306 307 306 308 309 309 311 312 311 311 311 311 310 310 310 310 311 310 310 310 310 310 311 311
322 322 321 322 321 320 318 310 305 302 302 302 301 306 304 308 306 306 304 304 307 307 307 308 309 311 311 311 312 312 311 310 310 310 309 310 310 311 309 309 309 309 310 311 313
323 322 322 322 319 319 313 305 304 306 303 307 306 304 307 307 305 305 303 304 305 307 310 307 311 311 309 307 307 307 308 308 309 308 307 309 308 309 309 309 309 311 312 312 312
322 321 320 317 318 318 309 301 302 302 305 303 304 304 305 306 306 304 304 305 306 307 305 306 308 305 304 304 305 305 306 307 307 306 306 307 308 309 309 311 311 310 309 309 310
322 320 319 319 318 317 302 299 299 299 302 302 301 304 305 306 305 304 304 304 306 305 305 305 305 303 304 305 305 305 305 305 305 305 307 307 308 308 310 310 309 309 309 309 309
319 319 317 316 315 316 302 298 299 298 307 308 304 304 305 305 304 302 302 305 305 305 305 305 303 303 304 304 304 305 304 304 304 305 305 306 306 308 309 310 309 308 308 308 309
317 317 315 314 314 306 307 304 300 301 320 306 305 304 305 304 304 303 302 304 305 305 305 305 304 304 304 304 303 305 303 304 304 305 305 306 306 309 310 309 307 308 308 308 309
317 315 314 313 311 308 305 302 301 308 317 307 304 305 304 303 303 303 304 303 304 304 304 303 302 303 303 302 302 303 303 304 305 306 305 306 305 306 306 305 307 308 309 309 307
313 314 313 314 310 303 300 300 307 314 308 306 305 305 305 303 303 304 304 304 304 304 304 303 303 302 302 303 303 303 304 304 305 307 306 305 303 305 304 307 309 309 307 305 303
314 313 313 312 309 301 302 305 313 314 308 306 305 305 305 304 303 303 304 304 304 304 304 304 304 303 302 302 302 302 303 303 303 303 304 304 303 304 305 308 307 308 306 303 301
315 312 310 309 305 303 302 309 316 309 306 305 304 305 304 303 304 304 304 304 304 304 304 304 303 302 302 302 301 303 302 303 302 303 303 303 304 305 307 308 307 307 304 302 301
313 307 307 304 301 301 302 309 309 304 304 305 307 306 305 304 304 304 304 304 303 303 303 303 302 302 302 302 303 302 303 305 305 305 302 303 304 305 308 308 307 305 303 301 300
305 299 300 300 301 301 305 307 303 301 302 305 305 304 306 304 304 305 304 303 303 303 302 303 302 302 301 301 302 304 304 304 305 304 304 304 305 309 307 306 306 305 303 301 300
302 298 297 300 303 304 307 304 301 302 301 302 304 304 305 304 303 304 304 304 302 302 302 302 302 301 301 302 302 303 304 305 306 305 306 307 305 307 306 305 304 304 303 301 300
299 295 299 301 305 306 304 302 301 302 302 302 302 303 303 304 303 304 304 302 301 302 302 302 302 301 302 303 303 303 304 304 304 305 305 306 304 307 305 304 303 303 301 300 299
299 301 298 299 302 306 305 304 301 300 301 301 302 302 303 303 303 304 302 301 300 300 301 301 301 301 302 303 304 303 303 303 304 305 304 304 304 305 305 303 302 301 300 299 298
299 301 301 301 302 305 305 304 302 300 301 301 301 302 303 303 303 303 302 302 301 301 302 303 302 302 302 302 302 302 302 303 304 304 304 304 304 305 303 303 300 300 298 297 296
299 301 300 301 302 303 304 302 303 301 301 302 302 302 302 303 303 303 302 302 302 303 304 304 305 303 304 303 303 304 304 304 303 303 304 304 304 303 301 300 299 298 296 295 294
300 300 300 301 303 303 304 303 302 302 301 302 303 303 301 302 301 301 301 301 302 303 304 304 304 304 303 303 303 304 304 303 302 302 303 303 303 301 301 299 298 296 295 294 292

GFSSW_850_thetae_147.txt.gz
Theta_e
320 321 323 323 323 322 322 319 317 315 312 311 311 313 313 313 311 311 315 313 313 311 310 313 312 315 316 318 319 320 323 325 325 325 326 323 323 322 322 322 321 322 322 321 321
319 321 322 323 322 322 322 321 319 316 313 311 311 312 313 312 310 311 313 310 311 311 313 313 314 314 316 317 319 321 324 324 325 323 323 322 321 321 321 321 320 320 321 320 319
319 320 321 322 322 322 321 321 320 317 313 312 311 312 312 311 313 314 309 308 307 309 311 312 313 314 316 317 318 320 322 323 322 321 319 319 319 318 318 320 320 320 319 318 319
320 321 321 321 321 321 321 321 320 319 314 314 312 311 311 310 318 313 308 308 308 309 310 312 314 315 317 319 318 318 319 318 318 317 316 317 316 317 318 318 318 317 317 317 318
322 321 320 320 321 321 321 321 320 318 315 313 311 309 311 312 312 308 308 309 310 311 312 313 314 315 317 318 318 318 318 317 316 315 315 315 315 316 316 316 316 315 316 316 316
325 324 323 320 321 322 322 321 320 316 313 310 309 308 310 313 307 308 308 309 310 311 312 312 313 313 313 315 315 316 314 315 314 315 315 314 315 315 316 315 314 314 314 315 315
325 325 324 322 322 322 322 321 319 315 310 307 306 304 310 314 307 308 309 310 310 310 311 311 311 312 314 315 314 313 314 316 316 314 314 313 315 316 315 314 314 314 314 314 314
325 324 324 323 323 322 321 320 318 314 309 305 303 305 315 309 307 307 310 311 310 310 309 309 309 310 311 312 313 314 315 315 315 314 313 312 315 316 314 313 313 312 312 312 313
324 323 322 322 322 322 321 320 318 313 308 304 307 311 316 310 307 310 310 310 309 308 309 308 310 311 312 313 315 316 316 316 315 313 312 312 313 314 312 312 312 312 312 313 314
323 323 323 322 321 322 321 320 316 310 309 306 308 310 312 311 309 308 308 308 308 309 309 310 312 314 315 314 316 316 316 315 313 314 311 311 312 312 311 311 311 312 313 314 314
324 322 322 322 322 321 320 315 310 312 309 315 311 309 309 309 308 307 307 307 308 310 312 312 313 315 313 312 310 310 310 310 311 311 309 310 310 311 311 312 313 313 312 312 312
322 322 322 322 321 319 318 307 307 307 312 311 309 308 310 309 309 308 306 307 308 311 310 310 311 310 308 308 307 308 308 310 310 310 308 309 310 312 312 313 312 311 311 311 311
323 323 323 322 320 318 316 306 310 304 309 315 309 309 308 308 309 308 306 308 309 310 309 310 310 307 306 307 308 309 308 309 308 308 309 310 310 311 312 311 310 310 310 310 311
321 321 320 320 315 318 313 310 301 301 315 317 306 306 308 307 309 306 306 308 308 309 309 310 308 306 307 307 307 308 307 307 307 307 308 309 308 311 312 312 310 309 310 311 310
319 319 318 316 312 313 309 311 300 310 324 313 308 306 307 308 307 305 305 306 309 309 308 309 307 306 307 307 306 307 307 306 306 307 308 309 309 311 312 311 309 311 310 308 308
317 318 316 315 314 312 307 300 307 316 325 312 308 308 308 307 306 305 305 306 307 308 307 307 306 306 307 306 305 305 306 307 308 308 310 311 309 310 310 309 311 310 308 307 306
316 317 315 315 314 312 304 305 313 324 317 313 309 308 308 307 306 306 307 306 307 306 307 305 306 305 304 305 306 306 307 308 309 310 311 310 308 308 308 310 311 309 307 306 305
315 317 314 314 314 309 303 308 319 319 319 313 311 309 309 307 307 306 307 307 307 308 309 307 307 306 306 306 306 305 305 306 306 309 310 308 307 308 307 309 309 308 306 306 305
315 313 314 312 310 302 305 313 318 317 317 311 310 309 309 307 308 307 308 308 308 307 306 308 307 305 305 305 304 307 305 307 306 306 306 307 308 307 307 310 308 306 305 304 304
311 310 310 310 303 302 308 314 317 316 313 310 310 311 311 309 307 307 307 308 307 306 307 308 308 306 305 304 304 304 306 307 308 308 307 307 306 307 310 309 308 306 305 304 304
311 304 305 302 301 303 308 314 315 308 306 309 310 312 311 310 308 308 308 307 307 306 305 306 306 305 304 304 305 306 305 305 306 307 307 306 309 310 309 308 308 306 305 304 303
307 302 300 301 302 303 309 313 311 306 304 306 308 310 309 311 308 309 309 308 305 305 305 306 306 306 305 305 305 305 306 307 308 307 307 307 306 308 309 307 305 305 304 303 302
299 296 299 300 305 305 312 312 307 307 306 307 308 309 308 310 308 308 307 306 304 305 305 305 304 304 304 305 304 304 305 306 306 306 305 306 305 309 307 305 304 304 303 302 301
301 300 298 297 300 306 311 312 307 305 307 305 306 306 307 307 307 307 307 305 303 304 301 304 304 305 305 306 307 304 305 305 306 306 305 305 305 306 307 306 304 302 301 300 300
301 302 303 303 304 306 309 309 307 304 304 304 305 306 306 306 306 307 305 303 302 302 302 304 304 304 303 304 304 304 305 304 304 304 305 305 305 306 306 305 302 301 300 299 299
300 304 304 306 304 306 309 309 308 306 305 305 305 304 305 306 307 305 305 304 304 303 303 303 306 305 304 303 303 303 304 304 304 304 305 305 305 306 303 302 301 301 298 298 297
302 304 304 306 306 306 309 310 310 307 305 305 304 304 304 304 304 304 304 304 304 304 305 305 305 305 305 304 304 305 305 305 305 305 305 305 305 303 302 301 300 299 297 297 296

GFSSW_850_thetae_150.txt.gz
Theta_e
319 320 321 323 323 323 323 322 321 320 318 316 316 316 318 319 318 314 316 315 315 313 313 315 315 315 317 319 321 322 323 324 325 325 325 324 324 323 323 323 323 322 322 322 322
318 319 321 322 323 323 322 322 322 321 320 317 316 317 317 317 318 316 314 314 312 312 315 315 315 316 316 318 320 321 323 324 325 324 323 323 322 322 321 321 321 321 321 320 320
318 319 320 321 322 322 322 322 322 322 321 318 316 316 317 315 316 315 314 311 310 311 313 313 314 315 316 318 319 320 321 323 322 322 320 319 319 319 319 319 320 320 319 319 319
319 319 320 320 321 322 321 322 322 322 322 320 318 317 316 315 321 315 312 311 311 310 312 313 315 316 318 319 320 320 319 319 319 318 318 318 317 317 317 318 317 317 317 317 318
321 322 322 320 321 322 322 321 322 322 321 319 318 317 316 317 317 313 310 309 310 313 313 314 315 316 318 319 319 320 319 319 318 317 316 316 316 316 316 316 316 315 316 316 316
324 324 325 324 323 322 322 322 323 322 320 317 315 314 310 317 310 310 310 311 311 313 313 313 314 315 315 315 316 318 317 316 316 315 316 316 315 315 316 316 315 315 315 315 315
326 325 324 324 324 322 323 323 321 320 319 316 311 308 309 316 312 309 309 310 311 311 312 313 312 313 315 316 316 316 315 316 316 317 315 314 315 316 316 315 315 314 313 313 314
326 325 325 324 325 324 322 322 321 320 319 314 309 305 313 315 311 308 310 312 311 311 311 311 311 311 312 314 314 314 315 316 317 315 314 313 314 317 315 315 313 313 313 314 315
325 324 324 324 323 323 322 322 321 320 318 312 310 315 316 314 311 310 310 312 312 310 310 310 310 311 313 314 315 316 317 318 316 315 314 313 313 314 314 313 313 312 314 315 315
324 325 324 324 322 322 321 322 321 320 313 314 311 312 315 315 312 310 311 311 311 310 310 310 311 313 314 314 315 316 316 317 317 316 313 312 311 313 312 312 312 314 314 314 313
325 324 324 323 322 322 322 321 315 314 310 317 318 315 311 312 310 309 309 309 309 311 312 313 314 315 316 313 312 311 311 312 313 313 311 310 310 310 312 314 314 313 313 312 312
324 324 323 323 322 322 321 320 310 308 313 316 315 315 314 311 311 310 309 309 310 312 313 314 313 314 312 311 310 311 310 310 312 312 310 310 309 311 313 314 312 312 312 313 312
323 323 322 322 322 321 321 320 310 314 312 318 319 316 313 311 312 312 308 308 311 311 313 312 313 310 310 310 309 310 310 310 311 310 309 309 310 312 313 312 311 311 312 310 309
321 322 321 322 317 320 319 319 316 305 318 320 314 312 313 311 311 312 309 309 311 311 312 312 312 309 309 308 309 309 309 309 309 308 307 310 308 312 313 312 312 312 310 309 308
318 321 321 320 316 316 316 317 317 313 328 321 312 310 312 310 312 309 308 309 310 311 311 311 311 308 308 309 309 309 308 308 308 306 307 308 308 310 314 313 313 310 308 308 307
318 320 320 316 315 309 310 314 311 320 324 318 311 310 311 310 309 309 308 307 308 309 311 310 308 308 308 308 307 306 306 307 308 308 308 310 311 312 312 312 312 310 308 307 307
316 318 318 316 314 313 304 304 316 322 319 320 313 311 312 311 311 308 308 307 309 309 310 309 308 307 306 306 306 307 307 309 310 309 310 312 310 311 311 312 310 309 307 307 306
315 315 316 315 312 313 304 310 319 320 319 316 315 312 312 312 310 308 309 309 309 309 310 310 308 307 307 306 307 309 307 308 307 310 311 310 309 310 312 310 309 308 307 305 305
313 314 316 314 312 305 308 315 319 320 319 319 314 312 311 311 310 309 308 309 310 309 309 310 310 307 307 307 306 307 305 308 308 307 307 307 309 308 311 310 308 307 306 305 305
308 310 310 312 312 302 307 315 318 318 317 317 316 313 312 312 309 309 309 310 310 310 309 309 308 307 306 305 305 305 306 307 307 310 308 309 309 311 311 310 309 307 306 305 304
307 306 305 307 304 302 310 311 316 316 316 314 314 313 312 313 310 310 310 309 310 308 307 308 308 308 307 305 305 306 305 305 306 309 308 308 309 310 309 308 308 306 306 304 304
306 304 304 302 303 304 308 312 314 315 312 312 311 312 313 313 313 310 310 310 308 308 306 307 307 306 306 306 306 306 307 309 311 310 310 310 308 310 309 307 306 305 304 303 303
303 298 299 300 305 305 310 311 314 315 312 309 310 312 313 313 311 312 311 308 306 307 307 307 305 306 306 306 306 305 305 306 309 307 309 307 305 309 308 307 306 304 303 302 301
302 301 297 299 300 305 309 312 313 313 312 308 310 311 311 310 311 311 310 307 305 306 303 305 304 305 306 306 307 307 305 306 307 307 305 306 306 308 308 306 305 303 302 301 300
302 302 300 301 302 305 308 311 314 310 310 308 310 311 310 310 311 309 309 306 305 302 304 305 304 304 305 305 305 306 306 305 306 306 306 305 304 307 306 305 303 302 301 299 299
301 305 304 306 304 307 309 311 314 311 308 309 308 308 309 309 311 309 308 305 304 304 303 303 305 306 306 304 304 304 303 305 305 304 304 304 305 306 304 303 302 301 300 299 298
302 305 306 307 306 308 309 311 312 309 306 306 308 309 309 308 307 307 306 305 305 305 304 305 304 306 305 304 304 304 303 304 304 305 306 306 305 304 303 302 301 300 299 298 297

GFSSW_850_thetae_153.txt.gz
Theta_e
318 319 319 321 322 323 323 323 322 322 321 321 321 320 320 320 321 319 316 316 315 315 314 314 315 315 316 317 319 320 317 317 319 321 320 320 320 319 321 322 321 322 322 320 319
318 318 319 320 321 323 323 323 322 322 322 322 322 322 320 320 321 320 317 314 314 313 314 314 314 315 315 317 318 318 315 318 319 319 317 318 318 318 318 318 319 318 319 318 319
318 319 319 320 320 322 322 323 322 322 322 322 322 322 321 321 320 317 315 314 312 313 313 313 314 315 315 316 317 317 318 319 319 319 318 317 317 317 315 315 316 316 317 317 318
319 320 320 320 320 321 322 323 323 323 322 322 322 321 321 320 319 315 314 313 312 312 313 313 314 315 315 315 318 317 318 318 318 318 317 315 316 315 316 315 316 315 316 316 316
322 321 321 321 322 322 323 324 324 323 323 323 321 319 320 317 319 316 312 310 310 311 313 314 314 315 314 315 315 316 318 318 318 317 316 316 315 314 315 315 315 315 315 315 315
324 323 322 324 325 325 324 323 323 323 323 321 319 317 311 313 312 309 310 312 311 312 313 313 314 313 314 314 314 316 316 315 315 315 315 315 313 314 315 315 315 315 315 315 316
326 325 325 325 324 324 325 324 323 322 321 320 317 313 307 319 317 309 309 311 310 311 312 312 312 313 312 313 314 315 313 312 313 315 313 314 312 311 315 315 314 313 314 315 314
325 326 326 326 324 324 324 323 323 322 321 319 317 308 310 318 316 314 312 311 311 311 311 311 311 311 311 312 312 312 311 311 313 312 312 312 311 314 315 315 313 313 315 313 313
325 325 325 324 324 323 323 323 322 322 321 317 315 314 315 316 316 314 311 309 312 312 310 310 310 310 311 310 310 311 310 311 313 313 310 310 310 311 312 312 312 313 313 313 311
324 324 323 324 324 323 323 322 321 321 321 314 314 312 315 317 314 311 310 310 312 311 310 310 310 309 309 308 310 312 311 311 312 312 310 310 310 309 310 313 313 312 312 311 309
324 322 323 323 324 323 322 322 318 313 312 318 317 316 314 314 312 311 310 311 310 311 309 311 309 310 310 311 311 310 310 308 308 309 309 308 308 307 309 312 311 312 310 309 308
323 324 323 324 324 323 322 322 314 308 307 316 316 315 317 316 311 311 309 309 309 308 310 310 311 312 312 310 310 309 309 308 309 310 307 305 304 305 309 310 311 309 309 308 307
317 321 322 322 321 321 321 322 316 310 309 316 319 318 316 316 312 313 310 309 309 308 309 310 312 310 310 310 310 309 309 308 308 307 307 306 304 305 309 311 310 309 308 307 307
316 316 321 321 319 319 320 321 320 316 319 320 319 320 319 314 312 313 311 309 308 308 309 310 311 309 308 308 308 307 308 308 308 306 304 304 302 309 310 311 309 308 307 307 306
314 318 319 320 318 319 319 321 318 316 324 320 315 312 314 313 312 312 312 308 308 309 309 309 309 307 308 308 309 308 306 306 306 304 303 304 303 304 311 311 308 307 307 306 306
313 317 318 318 318 318 318 319 315 317 322 321 310 310 312 312 312 310 309 308 308 308 308 308 307 307 307 307 306 305 305 305 304 304 304 305 305 306 310 311 308 307 307 306 306
313 315 317 317 317 316 316 315 316 319 319 320 312 311 311 313 311 308 307 305 306 306 307 308 307 306 306 305 305 306 305 304 306 304 305 308 307 311 310 309 308 306 305 305 304
310 313 315 316 316 315 311 312 316 318 319 318 314 311 310 311 311 308 307 306 306 307 308 308 307 306 305 305 305 304 305 304 306 308 306 308 307 311 308 308 307 306 305 305 304
307 310 310 313 312 310 311 313 318 318 318 318 313 311 311 312 311 309 307 307 307 307 307 309 309 305 306 306 305 306 303 306 306 305 304 304 311 310 309 307 306 306 305 304 304
306 308 308 311 311 304 308 316 317 317 317 318 317 312 310 311 310 309 308 308 308 308 307 308 307 306 305 305 304 304 304 305 304 308 307 305 309 311 310 308 307 305 305 304 303
306 306 307 309 306 304 308 310 314 315 316 318 317 317 312 311 310 309 309 309 309 307 306 306 307 307 304 304 304 303 304 304 304 306 307 307 308 309 309 307 306 305 304 303 302
306 306 305 304 302 302 308 311 313 315 315 316 313 314 311 311 312 309 309 310 308 306 306 307 306 306 306 305 305 305 307 305 303 305 305 303 305 307 306 305 305 304 303 302 301
305 302 302 302 306 305 306 310 312 314 315 315 313 310 312 312 312 311 310 307 307 306 306 305 304 306 304 304 305 304 304 306 308 304 308 303 306 307 307 305 304 303 302 300 300
303 299 299 299 299 304 308 310 313 313 314 311 310 310 311 312 311 311 308 307 306 304 305 306 305 304 304 306 305 305 305 304 307 304 304 303 302 307 306 305 304 302 300 299 299
302 301 299 300 300 304 306 309 312 312 312 311 307 309 310 310 310 311 307 305 304 303 304 304 303 303 304 304 304 304 305 305 304 306 305 305 305 307 304 303 301 301 299 299 298
299 301 300 302 301 303 307 308 311 313 311 312 308 308 310 308 308 308 306 304 304 303 303 302 301 305 305 306 306 304 303 303 304 304 304 304 305 303 303 302 301 300 299 298 297
300 303 303 304 302 303 306 308 310 312 313 308 309 308 308 308 307 307 306 305 304 302 302 302 303 305 305 304 304 303 303 303 303 304 304 304 305 302 301 301 301 300 299 297 296

GFSSW_850_thetae_156.txt.gz
Theta_e
317 318 319 319 321 322 323 324 323 323 322 322 322 322 322 323 323 323 320 317 315 315 314 315 315 315 315 316 317 319 315 317 319 318 318 317 317 318 318 318 318 318 318 318 319
316 317 318 319 320 321 322 323 323 323 323 323 323 322 322 322 323 319 318 315 314 313 314 314 314 314 315 316 317 316 314 317 317 317 316 316 317 316 316 316 316 317 317 318 318
318 318 319 319 320 320 321 322 323 323 324 324 323 323 322 322 322 315 314 313 313 313 313 314 314 314 315 315 315 315 315 316 318 317 317 316 316 316 315 314 315 316 316 316 317
322 320 320 320 320 321 322 323 324 324 324 324 323 322 322 321 321 318 319 315 313 312 313 313 313 314 314 314 315 315 316 316 317 317 316 315 315 315 315 315 315 315 315 316 317
325 324 323 322 322 323 324 325 324 324 324 323 322 320 319 318 320 319 313 312 311 311 312 313 313 314 313 313 313 313 314 315 315 315 315 315 314 314 314 315 315 314 315 315 316
326 326 325 324 323 324 325 324 324 324 323 322 321 320 313 314 316 310 309 311 312 312 313 312 312 313 313 313 312 313 313 314 314 314 314 314 313 315 314 315 314 315 314 314 313
326 327 326 325 325 325 325 324 324 324 323 322 321 320 315 319 319 310 309 311 312 311 311 311 311 312 311 311 312 312 312 310 312 314 313 313 312 310 315 314 313 313 312 312 311
327 327 326 326 326 325 324 324 323 323 322 322 320 315 315 321 318 316 312 311 311 311 310 311 311 311 311 311 311 311 310 310 311 311 312 312 312 312 313 313 312 312 310 311 310
326 325 326 325 325 324 324 323 323 323 321 321 320 314 317 318 316 316 314 309 311 312 311 310 310 310 310 308 308 309 309 310 310 310 309 310 309 310 310 310 311 310 309 308 307
325 325 325 324 323 324 322 323 322 321 321 320 317 312 318 316 317 312 311 312 310 311 310 310 309 308 307 307 311 311 310 310 311 311 308 309 310 308 310 311 310 309 308 307 306
323 324 324 324 324 321 322 322 322 315 314 319 318 318 318 313 311 311 311 311 310 310 308 309 307 307 308 308 310 309 309 308 308 309 308 307 308 308 309 310 308 308 307 307 306
323 324 323 323 323 322 322 322 321 315 311 318 318 313 317 317 315 311 311 310 309 307 308 308 308 308 309 310 308 309 309 308 307 308 307 305 306 304 307 309 308 307 307 306 305
316 320 322 322 322 321 322 322 320 308 308 314 319 320 320 317 315 314 310 309 308 307 307 307 310 310 310 309 309 308 308 308 307 306 306 305 304 305 309 308 307 307 306 305 305
315 315 316 320 319 319 320 321 321 313 317 320 318 319 318 317 313 316 313 309 307 307 307 307 309 309 308 307 307 307 307 307 306 305 305 303 302 306 309 308 307 306 305 305 305
312 315 314 317 319 319 320 321 320 316 324 319 319 316 319 316 314 312 313 309 306 307 307 308 307 307 307 308 307 306 306 305 305 303 302 303 301 301 308 307 306 305 305 305 305
312 314 315 317 318 318 319 320 317 318 321 320 310 310 315 314 312 309 311 309 308 307 307 307 307 306 306 305 304 304 304 304 302 301 301 302 301 302 309 308 306 305 305 305 304
309 313 313 315 316 317 319 316 317 319 318 319 309 310 312 312 313 307 306 305 305 306 306 306 306 305 305 305 305 304 303 302 304 303 303 305 303 308 308 307 306 304 304 304 304
305 310 312 312 315 316 315 314 317 316 318 318 311 309 311 312 312 308 305 305 304 306 305 305 307 304 304 304 304 303 303 304 307 307 306 306 311 310 307 306 306 306 304 304 304
304 307 310 311 313 314 313 317 317 316 317 318 311 311 309 312 310 307 305 305 306 306 306 307 307 304 304 305 304 304 304 304 305 304 303 307 310 309 307 306 305 304 304 303 303
304 306 307 310 311 309 312 314 316 314 316 317 319 312 310 310 309 308 306 307 307 306 307 308 306 304 304 304 303 304 303 304 303 305 306 304 310 309 309 307 305 303 303 302 302
303 306 306 307 310 306 309 308 313 312 315 317 318 315 311 310 310 309 307 308 307 307 306 306 306 305 304 303 303 302 302 303 304 305 308 307 307 307 309 307 305 304 303 302 301
302 304 305 307 303 300 306 309 310 313 314 315 316 316 317 313 310 308 308 308 308 306 306 306 306 305 305 304 303 303 304 303 300 302 302 302 304 306 304 304 304 303 302 300 299
302 303 304 304 307 304 305 308 309 311 313 316 317 314 313 316 310 309 308 307 306 304 305 304 304 304 304 303 304 303 303 305 303 303 306 303 305 306 305 304 303 302 300 299 299
301 299 300 301 301 305 305 308 310 309 311 313 314 314 315 312 312 309 307 305 304 305 306 305 304 305 306 305 303 303 303 306 306 304 305 305 304 306 304 303 302 300 299 299 298
300 300 300 299 300 303 305 307 309 311 312 312 313 313 313 312 311 308 306 304 303 304 303 303 303 303 303 303 304 303 304 303 305 304 305 304 305 305 305 303 301 300 299 298 297
299 300 299 298 302 302 304 307 308 308 309 313 310 311 308 310 310 310 306 304 303 302 302 301 301 303 303 304 304 304 303 302 303 304 305 304 304 303 302 301 300 299 298 297 296
299 300 301 300 299 302 304 305 308 310 311 310 309 308 309 308 307 308 305 304 303 301 301 301 303 303 303 304 304 303 303 302 303 302 302 302 303 300 300 300 299 299 297 296 295

GFSSW_850_thetae_159.txt.gz
Theta_e
317 318 319 319 320 321 322 323 323 323 323 324 324 324 324 324 324 324 320 319 316 315 314 315 315 314 315 316 317 318 313 315 318 317 317 316 316 316 317 317 317 317 316 317 319
317 317 318 319 320 321 321 322 322 323 324 325 325 324 324 324 324 318 316 314 313 314 315 314 314 315 314 315 316 314 313 315 316 316 316 316 316 316 315 315 316 315 317 318 318
318 318 318 319 320 321 322 322 323 324 324 324 324 324 324 324 323 315 315 316 314 314 314 314 314 314 314 314 314 313 313 314 317 317 317 316 316 316 314 314 315 314 317 317 318
325 323 322 321 321 322 322 323 325 325 324 324 324 323 323 322 322 320 322 317 313 312 313 313 314 314 313 313 314 314 314 314 315 316 315 314 315 314 314 314 313 315 316 316 316
325 326 325 324 323 323 323 324 325 324 324 324 323 322 322 320 322 319 312 311 311 311 311 313 313 313 312 312 312 312 313 314 314 314 314 314 313 313 313 312 314 315 314 314 313
325 326 326 326 326 324 324 325 325 324 324 323 323 322 319 316 321 314 309 310 313 311 312 311 311 312 312 312 311 312 312 312 313 314 314 313 312 314 312 313 314 314 313 312 311
325 325 326 326 326 325 325 325 324 323 323 323 322 321 319 321 320 317 310 310 313 310 311 311 311 312 311 311 311 311 311 310 311 313 313 313 311 310 312 313 312 310 309 309 309
326 326 326 326 326 326 325 325 324 323 323 322 322 321 319 321 321 318 314 313 312 310 310 311 310 311 310 310 310 310 310 311 311 310 311 312 311 310 312 313 310 308 307 307 306
326 326 326 325 326 325 326 323 323 323 322 321 321 318 319 319 318 314 317 314 311 311 311 310 310 309 309 307 307 309 309 309 310 309 308 310 310 308 311 312 309 308 307 305 305
325 325 325 325 325 324 323 323 322 322 322 321 319 316 318 315 315 315 310 313 310 310 311 310 309 306 305 306 309 310 310 309 310 309 308 309 308 306 310 309 308 307 306 305 304
322 324 325 325 324 324 322 322 322 318 315 321 319 320 320 314 311 312 311 311 310 310 307 308 306 306 306 307 309 310 308 308 307 307 308 308 307 307 308 307 306 306 306 305 304
315 320 321 323 324 323 322 321 321 314 311 318 318 317 320 318 317 312 310 310 309 307 307 307 306 307 307 308 309 308 308 307 307 306 306 305 306 305 307 306 306 306 305 305 304
315 318 321 322 323 322 322 321 320 318 314 315 320 320 320 319 314 316 311 310 307 306 306 306 308 309 308 309 308 307 306 307 307 305 303 304 303 308 307 306 306 305 305 304 304
313 315 316 320 319 320 320 321 321 320 319 319 316 316 317 318 314 317 315 309 307 306 305 306 307 308 308 308 306 306 307 306 306 305 304 303 303 306 307 306 305 304 304 304 304
312 313 315 315 317 318 319 320 321 319 322 316 319 318 318 317 315 314 317 309 306 306 305 307 307 307 307 306 306 305 305 305 305 302 302 302 302 302 307 307 305 304 304 304 304
309 311 311 316 314 317 319 320 319 318 322 317 314 312 316 316 312 310 311 312 309 306 306 306 307 306 305 304 305 303 304 302 300 300 301 302 301 299 307 306 305 304 304 304 304
307 308 312 311 314 315 318 317 318 319 316 317 309 309 316 316 313 308 307 307 305 306 306 306 305 304 305 304 304 302 302 303 303 302 303 303 301 300 307 305 305 304 304 304 303
306 307 308 312 313 315 315 314 316 313 316 317 309 309 316 312 313 307 306 309 303 305 304 306 307 303 303 304 304 302 303 304 306 305 305 304 303 307 306 306 306 305 304 304 303
304 304 305 309 311 312 313 315 313 316 313 315 310 309 309 311 313 309 305 309 307 304 308 306 307 303 303 303 305 303 304 304 304 303 303 303 309 307 305 304 304 304 304 303 303
302 303 305 307 310 312 311 314 314 313 315 314 316 310 309 309 310 312 305 305 306 305 306 307 305 304 303 304 303 304 303 304 303 306 304 303 309 306 307 306 304 303 303 302 301
301 303 304 306 309 308 310 307 312 313 313 315 317 317 314 309 310 309 308 307 306 305 306 306 305 304 303 303 302 302 302 302 303 304 306 307 305 305 308 306 304 303 303 302 301
301 303 304 306 305 303 307 309 309 311 312 313 315 317 317 313 309 309 309 307 307 306 305 305 305 303 303 304 302 301 302 303 302 304 303 303 303 304 305 304 304 303 302 300 300
301 301 303 305 306 303 306 308 309 311 311 314 314 316 315 316 315 310 308 306 305 305 305 304 304 304 303 302 303 302 303 303 302 302 306 304 303 304 303 303 304 303 301 300 299
300 301 301 303 303 305 305 307 309 308 309 311 313 314 315 312 313 311 308 305 304 305 306 306 304 305 306 305 302 302 302 304 303 303 303 304 304 305 303 303 302 301 300 299 298
299 299 299 302 301 302 305 306 308 310 309 309 310 312 313 313 312 310 306 304 303 303 302 304 305 303 303 303 303 303 302 304 304 303 304 304 304 305 304 302 302 300 299 298 297
298 299 299 298 301 303 304 305 306 307 308 311 310 309 311 309 309 309 307 305 305 302 302 301 302 302 302 303 303 303 302 301 302 303 302 303 302 303 305 303 301 300 298 297 296
299 299 300 300 299 303 304 304 304 306 307 308 307 309 311 310 310 310 310 310 305 303 302 302 303 302 303 303 302 302 302 302 302 302 303 303 302 300 300 300 299 299 298 297 296

GFSSW_850_thetae_162.txt.gz
Theta_e
317 317 318 319 319 320 321 322 322 323 324 325 325 325 325 325 324 324 318 317 314 314 314 315 314 315 315 317 317 317 312 314 317 315 316 316 316 316 316 316 316 316 316 318 323
317 317 317 318 319 320 320 322 322 324 325 325 324 324 324 324 324 316 314 313 314 315 314 314 314 314 315 315 315 313 312 315 315 315 315 315 316 316 315 314 316 317 317 317 317
321 319 319 319 320 320 321 322 323 325 325 324 324 323 323 323 323 314 319 321 318 315 314 313 313 314 314 314 313 312 313 313 316 317 315 315 315 314 313 312 314 316 316 316 316
324 325 324 324 323 322 322 323 324 325 325 324 324 324 323 323 323 321 322 319 313 312 313 313 313 313 312 312 313 313 313 313 314 315 315 314 315 313 312 312 315 315 314 314 314
324 324 325 325 326 325 324 324 324 325 324 324 323 323 322 321 323 320 317 311 311 311 312 313 313 312 312 311 312 311 312 313 313 313 314 314 313 310 312 313 314 313 313 312 311
323 323 324 326 326 326 325 324 324 325 324 323 322 322 322 318 321 320 315 310 313 312 312 311 311 311 311 311 311 311 311 311 312 313 313 312 311 313 311 312 312 312 310 309 308
324 324 324 325 326 326 326 325 325 325 324 322 322 322 322 322 321 320 319 311 311 311 310 311 311 311 311 310 310 310 310 309 310 311 310 312 310 311 311 311 309 308 306 306 305
324 324 325 325 325 326 326 325 325 325 323 322 322 321 321 322 321 321 317 310 311 310 310 310 310 310 310 310 309 309 308 310 311 310 311 311 310 311 310 311 308 307 306 305 304
325 325 325 326 326 325 325 325 325 323 322 322 321 319 320 319 316 314 316 318 316 310 311 310 309 309 309 306 306 306 308 309 309 308 308 309 306 308 310 310 307 306 305 304 303
320 324 325 325 325 325 325 324 324 322 322 321 318 315 320 315 314 313 312 314 309 309 310 310 308 305 304 305 309 309 309 309 309 307 308 306 306 308 309 307 306 305 304 304 303
313 317 321 324 325 324 324 323 322 321 317 321 319 320 319 320 314 312 310 311 312 309 308 307 305 305 305 306 308 309 308 307 307 306 307 306 305 307 306 306 305 305 304 304 303
309 313 319 323 324 324 323 322 321 316 314 319 319 318 319 318 319 313 310 310 309 307 306 306 305 305 306 306 308 309 309 306 306 304 306 304 304 306 306 305 305 305 304 304 303
311 311 315 318 322 322 322 322 322 321 315 318 320 320 318 319 318 318 312 309 307 306 305 306 308 307 307 308 308 306 305 306 307 304 303 304 304 307 306 305 305 305 304 304 303
310 312 314 318 319 320 321 320 321 320 320 318 315 316 316 318 315 319 318 310 306 306 304 305 306 307 307 308 307 307 305 306 305 304 304 302 303 305 306 305 304 304 304 303 303
309 310 312 314 317 318 319 320 321 318 320 314 317 316 316 317 315 315 316 309 305 305 305 307 306 306 306 306 304 306 305 305 304 301 301 302 302 302 306 306 304 303 304 304 303
307 309 311 313 314 316 318 319 318 318 317 316 316 316 315 315 312 310 311 310 308 305 305 305 306 305 305 303 304 302 302 301 299 300 302 301 302 301 306 306 304 303 304 304 303
307 307 308 310 312 314 316 315 318 319 315 315 310 314 315 316 315 308 309 307 308 306 305 305 305 304 304 303 303 302 303 304 304 302 304 302 300 302 305 304 304 303 304 303 303
305 306 307 308 312 314 314 314 317 316 315 314 308 309 316 314 315 307 307 309 306 306 305 307 306 303 303 304 303 302 304 306 309 305 304 302 301 302 305 305 305 304 304 304 303
304 305 305 306 309 311 313 315 314 314 312 313 313 309 310 312 315 306 306 309 310 304 309 306 307 303 303 303 304 303 302 304 305 303 303 301 304 306 304 303 304 304 303 303 303
303 304 304 304 306 310 310 313 311 311 313 313 313 311 309 308 311 314 307 306 308 306 306 307 307 303 302 303 302 304 303 304 304 306 304 302 304 304 306 304 303 302 303 303 302
303 303 303 302 303 308 309 310 310 310 311 313 314 314 312 308 310 311 313 309 307 305 306 305 306 304 303 302 302 303 303 302 303 304 306 305 304 303 306 305 304 303 304 303 302
302 301 302 303 305 304 306 309 309 310 311 312 313 315 315 312 308 309 311 308 307 305 305 306 305 304 302 303 302 302 303 304 306 305 303 301 303 304 304 305 304 303 304 303 301
300 300 301 305 305 306 306 308 309 309 311 312 313 313 315 316 314 311 308 306 306 304 304 305 306 305 304 303 302 302 302 302 302 301 304 302 303 303 303 304 304 304 304 302 300
300 300 300 302 302 304 304 306 308 308 309 311 312 312 314 315 314 314 311 305 304 305 306 306 305 306 309 307 304 303 302 302 302 302 302 303 303 305 303 303 302 303 303 301 299
298 299 299 301 300 302 303 306 307 307 308 308 310 311 311 314 312 311 306 304 303 303 303 306 307 304 303 304 302 303 301 302 302 303 303 304 302 302 303 302 302 302 301 299 298
298 299 298 298 299 301 303 303 306 307 307 308 308 308 311 311 310 309 307 306 306 303 302 302 306 303 303 303 303 303 301 302 302 303 301 301 301 301 304 303 301 301 299 298 297
298 299 299 298 297 301 302 302 303 304 305 306 307 308 309 309 310 309 309 309 306 307 304 304 304 304 306 303 302 303 301 300 301 301 302 302 303 300 302 301 300 299 299 297 296

GFSSW_850_thetae_165.txt.gz
Theta_e
316 317 317 318 319 320 321 322 323 324 324 325 325 324 323 323 323 323 316 314 314 314 314 315 314 315 316 317 317 317 320 320 319 318 318 316 317 315 316 317 316 316 317 320 322
316 317 318 318 319 320 321 323 323 324 325 325 325 324 323 323 323 315 314 317 316 315 314 314 314 315 315 315 315 317 319 319 317 316 317 315 316 314 316 317 317 315 316 317 318
320 320 320 320 321 321 322 323 324 324 325 325 325 324 323 323 322 314 318 321 319 316 314 314 314 314 314 313 313 313 320 316 317 316 315 315 315 312 314 315 316 315 313 314 315
323 324 325 325 324 324 325 324 325 325 325 325 325 324 323 322 323 321 322 322 315 314 312 313 313 314 313 314 312 315 313 313 314 314 314 315 313 313 313 313 314 314 313 312 312
323 324 324 325 325 325 326 325 325 325 325 325 324 323 322 322 322 323 319 313 311 312 313 313 313 312 313 312 312 313 312 312 313 313 313 313 311 314 312 311 313 312 311 311 310
323 323 323 324 324 325 325 325 325 325 325 324 324 322 322 320 321 322 319 312 312 312 311 311 311 311 311 311 312 311 311 311 312 313 312 312 313 314 311 310 309 310 309 309 308
324 323 324 324 324 325 325 326 326 325 325 324 323 322 321 322 322 321 321 319 310 311 310 310 310 311 311 311 310 309 312 311 311 312 313 310 310 314 311 309 308 307 306 305 305
324 324 324 324 324 325 325 324 325 325 325 323 322 322 321 321 321 320 320 320 310 311 310 310 310 310 310 310 309 311 310 315 312 310 311 312 316 311 309 309 307 306 305 304 304
323 324 325 325 324 325 325 325 324 324 325 322 321 320 320 321 317 316 312 318 312 314 310 310 309 309 309 311 312 310 316 312 312 309 309 311 312 311 309 308 307 306 304 303 302
316 319 324 324 324 325 325 325 324 323 324 322 321 318 320 319 314 313 313 315 311 309 310 309 308 309 308 311 319 314 312 311 312 309 309 309 309 311 309 308 306 305 304 303 302
307 311 316 319 324 324 324 323 324 322 321 322 319 318 320 318 320 314 311 311 310 309 311 307 309 311 311 309 309 310 310 309 308 307 308 308 311 311 308 307 306 305 304 303 302
310 308 307 314 319 323 323 322 322 318 319 321 320 319 320 319 319 318 310 311 310 310 307 309 310 309 307 307 309 310 311 310 308 306 307 307 311 310 308 308 307 305 304 304 302
310 310 310 309 317 320 322 322 322 322 318 319 320 320 319 320 318 318 313 309 308 308 308 310 310 306 308 308 309 309 310 308 309 306 305 306 309 310 308 307 306 305 305 304 303
311 310 311 311 314 317 319 321 321 321 320 319 316 316 316 318 315 318 319 310 307 310 307 309 308 308 308 309 309 310 307 307 307 308 310 304 313 308 309 309 306 306 304 304 303
307 308 308 310 314 315 316 318 319 318 318 315 315 315 316 317 315 315 317 310 308 307 308 311 307 307 308 309 308 310 306 306 305 306 305 305 308 308 308 309 308 306 304 304 303
306 307 308 310 312 313 316 318 318 318 318 315 316 315 314 314 312 310 311 309 308 306 305 309 305 306 308 304 307 303 305 304 303 305 308 307 308 310 310 309 308 305 304 303 303
306 306 307 308 311 313 313 314 317 318 314 315 314 316 316 317 316 310 312 309 311 310 308 306 306 304 304 305 304 304 308 309 308 307 310 303 305 309 307 308 308 306 304 304 303
304 305 307 307 308 310 314 314 316 313 317 312 308 313 318 316 317 308 311 313 310 309 309 312 312 306 305 307 306 305 309 311 311 310 309 303 306 307 307 306 306 306 305 303 303
303 304 305 306 307 308 311 313 314 314 314 315 313 312 311 314 317 307 310 312 312 307 315 311 312 303 303 304 306 304 305 308 307 304 306 307 305 308 306 305 305 304 304 303 303
302 303 304 304 305 307 309 312 311 311 312 312 315 314 311 310 315 313 308 308 311 309 308 310 310 303 302 304 303 306 306 307 307 310 309 308 306 309 308 308 305 304 304 303 302
302 303 303 303 304 305 308 308 310 309 310 312 312 313 312 310 312 313 316 311 308 309 309 308 308 304 303 304 305 305 305 305 307 308 310 310 311 307 308 308 307 305 304 303 302
301 302 303 303 303 303 306 309 307 309 309 309 313 313 314 313 311 312 314 314 308 306 308 308 308 306 304 303 303 305 306 308 313 308 307 309 309 307 307 307 307 306 304 303 303
300 300 301 304 303 303 304 307 308 309 310 311 311 312 314 315 315 312 310 306 305 306 308 307 309 311 310 305 302 303 304 306 306 306 308 311 309 305 305 306 306 306 305 303 302
300 300 299 301 302 302 302 305 307 308 308 309 312 312 314 314 314 316 314 306 304 305 306 307 308 311 315 311 307 304 303 304 306 307 307 307 308 306 307 307 306 305 304 303 301
299 299 300 301 301 302 303 303 305 306 308 308 310 311 312 313 313 315 312 308 305 304 304 307 309 309 310 310 306 305 305 303 304 306 307 307 305 307 307 307 306 305 303 301 299
298 298 298 298 299 301 302 304 304 304 306 308 309 310 311 311 310 310 307 307 307 306 303 304 309 306 307 308 304 304 303 304 304 305 304 305 304 304 304 305 304 303 301 299 298
298 298 299 299 299 300 301 302 302 304 305 306 307 308 308 310 309 309 309 308 308 308 306 306 307 307 309 305 304 306 307 303 304 305 305 304 306 303 304 304 304 302 300 298 296

GFSSW_850_thetae_168.txt.gz
Theta_e
315 316 317 318 319 320 322 323 324 324 325 325 325 325 324 324 323 322 316 313 314 314 315 315 315 315 317 319 320 320 325 325 325 325 323 320 321 319 320 321 319 320 322 322 321
316 317 317 319 319 321 322 324 325 325 325 326 325 325 325 324 323 317 316 320 320 319 316 315 316 316 318 319 319 323 325 325 324 323 322 320 320 320 322 322 320 319 318 317 317
317 319 320 320 321 322 324 325 326 326 326 326 325 325 325 324 323 316 316 319 321 319 315 315 315 316 319 318 319 321 325 323 321 320 320 320 319 317 320 322 322 320 317 315 314
321 322 324 324 325 325 325 326 326 325 325 325 325 325 324 323 327 323 323 323 320 316 315 314 316 319 321 321 317 321 319 320 319 317 318 320 318 318 319 319 320 317 315 314 312
322 323 323 324 324 325 325 325 325 325 325 325 325 324 324 323 324 322 322 318 314 313 313 314 316 317 321 319 317 319 319 317 316 316 317 317 318 319 317 316 315 313 312 311 310
323 322 323 323 323 324 324 325 325 325 326 325 325 324 322 325 323 321 322 318 311 313 312 313 314 314 317 317 318 316 316 317 317 318 316 319 318 318 316 314 313 312 311 310 308
324 324 324 323 323 323 324 324 325 325 325 324 324 323 322 323 322 322 321 321 316 312 312 311 311 314 315 317 314 314 317 318 317 318 318 316 318 318 315 314 312 311 309 308 307
323 323 323 324 324 324 324 324 324 324 324 323 324 322 322 322 321 320 319 319 320 311 310 310 310 313 314 313 315 317 317 323 319 317 316 316 321 317 315 314 313 311 309 307 306
322 322 324 324 324 325 324 324 324 325 324 323 323 320 323 321 318 317 312 317 313 312 310 310 311 313 313 317 321 320 325 322 319 315 316 317 321 316 314 314 314 312 310 308 305
312 315 318 321 324 324 325 325 325 325 324 323 323 320 322 322 315 313 314 315 314 313 311 311 312 315 316 319 326 326 323 322 322 315 314 316 317 317 314 314 314 312 310 308 306
304 305 308 314 318 321 322 324 323 323 320 325 323 321 320 318 318 315 313 312 311 312 316 312 316 318 320 320 321 319 321 321 320 313 313 316 317 317 315 314 314 312 311 309 307
304 305 307 306 309 316 321 321 322 318 321 322 321 319 320 319 320 320 314 314 314 317 314 314 317 318 316 314 315 317 319 320 316 312 312 314 316 317 315 314 313 313 311 309 307
304 308 308 308 308 314 318 321 321 322 320 321 321 321 321 318 321 322 316 315 316 318 316 318 318 312 314 313 314 316 317 319 317 312 311 312 314 316 315 314 313 312 311 309 307
309 310 310 310 309 312 318 319 320 320 322 318 319 319 318 318 319 319 320 317 315 318 318 316 316 312 313 315 315 317 315 314 315 314 318 312 319 317 315 315 313 312 310 309 307
311 310 309 308 312 313 316 317 316 317 317 316 317 315 316 318 317 318 319 317 318 315 314 317 314 313 315 315 314 316 311 313 313 314 314 314 315 319 315 315 314 312 310 309 307
308 308 307 308 309 312 315 315 316 318 318 315 318 317 317 318 318 314 315 314 314 317 313 317 310 313 315 314 312 310 310 310 310 312 315 316 315 318 316 315 315 312 311 309 308
305 307 307 307 310 310 313 316 317 317 312 314 319 318 319 319 319 315 317 317 317 316 316 315 313 309 308 310 311 311 312 316 315 314 317 311 314 316 314 312 313 313 311 309 308
303 306 306 306 307 310 313 314 315 313 312 315 314 317 320 320 320 315 318 318 316 316 319 318 317 313 309 312 312 312 314 319 320 321 319 309 312 315 310 310 310 311 310 309 307
303 303 305 304 306 307 311 312 314 312 313 314 316 316 318 318 319 318 316 319 318 315 317 319 319 311 309 311 311 311 312 315 315 310 313 316 314 310 311 311 310 310 310 309 307
304 303 304 304 304 307 309 311 311 309 311 313 315 315 317 316 318 319 319 316 316 317 314 317 319 309 308 307 308 311 312 311 312 316 316 317 317 317 313 312 312 311 310 309 307
302 303 303 303 304 305 307 308 309 310 310 309 313 316 316 316 315 317 318 315 313 315 315 316 314 310 306 308 313 309 310 310 313 314 316 317 318 314 313 313 313 311 309 308 307
302 302 302 303 304 304 306 307 307 309 308 311 311 312 314 315 315 315 315 316 311 312 314 314 313 316 313 307 306 309 311 312 315 313 311 313 316 312 312 313 312 311 309 308 307
301 300 301 303 305 305 304 305 305 307 308 309 311 311 312 313 314 314 314 312 310 310 312 311 312 316 315 313 308 305 308 309 312 310 312 316 315 311 311 311 311 311 309 308 307
299 302 299 301 299 305 305 305 304 304 308 309 310 310 311 312 313 314 314 311 306 307 306 308 312 314 318 315 313 310 308 307 309 311 311 312 312 313 310 311 311 310 310 308 307
298 300 301 304 303 302 305 304 304 304 305 308 310 311 312 313 312 313 313 314 310 307 307 310 311 311 313 313 314 312 310 308 307 309 312 313 313 314 312 311 310 310 310 309 306
298 299 298 301 301 303 304 305 304 304 304 306 307 310 311 312 313 314 313 310 310 308 307 307 313 311 312 313 312 312 312 313 313 310 310 310 310 311 309 308 309 309 309 308 305
297 298 300 301 302 302 303 303 304 304 304 303 305 308 310 310 310 310 310 310 309 309 309 309 311 312 313 312 311 313 313 312 313 314 312 310 310 310 307 307 308 308 308 307 304

GFSSW_850_thetae_171.txt.gz
Theta_e
315 316 317 318 319 320 321 323 324 325 325 326 326 325 325 325 324 323 321 318 316 317 317 317 318 319 320 323 323 324 326 327 327 326 326 323 324 323 324 325 324 325 331 329 330
315 316 317 318 318 320 321 324 325 326 326 326 325 325 325 325 324 325 319 317 320 322 317 318 320 319 321 323 323 325 328 328 327 326 326 324 324 324 326 325 324 323 324 325 326
315 317 319 320 321 322 323 325 326 326 326 325 325 325 324 324 325 322 320 318 319 321 317 318 319 320 322 322 324 325 327 327 325 325 324 323 324 323 325 326 325 325 324 323 323
319 319 321 323 324 325 325 326 326 325 325 324 325 325 324 324 329 323 324 323 323 322 317 319 321 322 324 324 323 323 324 325 324 322 322 324 322 323 324 324 324 323 322 321 319
322 322 322 323 324 324 325 325 325 325 325 325 325 324 324 326 326 324 323 321 318 315 317 319 321 323 325 324 323 323 324 322 321 320 322 322 322 323 322 321 321 320 319 318 316
324 323 322 323 323 324 324 324 324 325 324 325 325 324 324 326 324 322 322 320 316 317 318 318 320 319 321 322 323 322 322 322 322 321 321 321 322 321 320 319 317 317 317 315 314
325 325 324 324 323 323 323 324 324 324 324 324 324 324 323 325 325 322 321 321 317 316 318 316 316 318 321 323 322 320 322 322 322 321 322 320 323 322 320 318 317 317 316 314 312
324 325 324 323 323 323 324 324 324 325 324 324 324 323 324 324 323 322 322 322 322 317 316 315 315 316 318 321 320 321 323 325 325 322 321 320 323 323 320 318 318 316 314 313 311
319 320 323 323 324 325 324 324 324 324 325 324 324 321 324 323 322 319 317 318 319 316 316 313 314 317 320 321 325 325 325 326 325 323 323 320 323 322 319 318 318 317 315 313 310
306 311 313 316 318 320 323 325 324 325 324 323 320 320 324 324 320 317 317 317 318 317 316 315 316 320 321 324 327 327 327 326 328 322 321 321 322 322 319 318 319 317 316 313 311
303 304 304 305 308 314 318 322 323 325 325 324 324 324 323 321 318 320 318 318 317 317 320 318 319 322 323 323 324 325 326 327 327 323 320 321 322 322 319 319 319 318 316 314 312
301 303 304 306 306 306 313 321 323 319 322 323 323 323 324 323 323 323 320 318 319 320 321 321 320 321 322 323 322 323 324 325 326 321 316 321 321 322 321 319 319 318 317 315 313
299 302 306 308 307 308 312 318 320 319 322 317 318 320 321 321 322 322 322 320 321 322 321 324 323 318 320 320 319 321 323 324 325 322 316 318 320 321 321 319 318 318 317 315 313
303 305 308 308 306 314 315 316 318 320 318 314 317 319 320 320 322 321 321 321 323 321 320 321 323 321 319 319 320 321 321 321 321 321 321 319 320 321 321 320 319 317 317 316 313
307 313 310 309 315 314 317 318 318 320 315 314 316 317 319 320 319 320 319 319 323 322 318 321 321 320 320 320 320 319 317 318 319 320 321 320 318 320 321 320 319 318 316 315 313
306 311 310 309 311 315 315 316 315 316 316 315 318 318 318 319 319 319 320 319 320 322 319 319 319 318 320 319 319 317 316 316 317 318 320 320 320 321 321 320 320 318 316 315 313
303 308 309 310 311 311 314 315 314 316 312 313 316 318 319 320 321 321 320 322 322 321 321 320 318 318 315 317 318 316 317 320 320 320 320 320 321 321 320 319 319 319 316 314 313
302 303 308 307 308 309 311 315 313 309 310 314 317 317 319 318 319 321 319 321 320 319 320 321 321 318 316 316 318 317 318 322 323 323 323 321 318 320 317 316 315 316 316 315 313
302 303 304 307 305 307 312 312 312 308 309 310 311 316 316 318 320 321 321 319 320 319 319 319 320 319 317 315 317 319 318 319 321 320 320 321 322 317 316 315 314 314 315 314 313
302 304 305 306 305 304 308 311 311 310 310 311 312 315 314 316 319 321 321 319 319 320 319 318 321 317 316 313 315 317 317 318 318 319 321 321 320 320 316 315 313 314 314 313 313
302 303 305 305 305 306 308 309 310 309 310 310 311 311 315 318 317 320 319 319 317 318 318 317 317 314 311 312 316 314 314 315 317 318 319 319 319 319 318 317 316 315 313 313 312
302 303 303 305 305 305 307 306 306 308 308 310 312 312 311 312 314 317 319 319 315 314 317 318 318 320 314 314 312 311 315 316 319 317 320 321 320 316 315 316 315 314 313 313 312
301 301 302 303 306 306 306 306 306 307 307 308 309 311 311 312 315 316 317 316 316 315 315 315 316 321 319 318 311 311 313 312 315 317 315 321 320 316 316 314 314 314 313 312 311
300 303 300 302 302 302 307 306 306 305 306 306 309 309 311 312 312 314 313 313 311 311 308 310 313 317 319 318 317 316 315 313 313 315 316 316 317 317 315 313 313 313 313 312 311
298 301 302 304 302 304 305 305 306 306 305 305 307 309 311 312 312 313 312 313 312 310 310 311 313 314 314 314 314 314 316 316 314 312 313 314 314 315 314 314 314 313 312 312 311
297 298 299 301 301 303 304 304 303 304 306 306 306 307 308 310 312 312 312 313 313 312 313 310 315 312 313 313 315 315 315 315 316 315 314 313 314 315 313 314 313 313 312 312 311
297 299 299 301 301 302 303 303 304 304 305 305 306 307 306 307 307 309 310 311 312 312 312 312 313 313 313 312 313 317 317 316 316 316 316 315 313 313 314 314 311 311 311 311 311

GFSSW_850_thetae_174.txt.gz
Theta_e
316 316 316 318 319 320 321 322 324 325 326 326 326 325 325 324 324 326 325 320 320 318 319 320 321 320 321 322 324 324 326 326 326 327 327 325 326 325 326 326 328 332 334 333 336
314 316 316 317 318 319 321 323 325 326 326 326 325 325 324 324 324 325 322 322 320 318 321 319 321 321 322 323 324 325 326 326 328 327 326 325 325 325 326 326 327 328 330 330 329
314 315 317 319 320 322 323 324 325 326 326 325 324 324 324 324 325 322 322 324 324 323 321 319 321 322 323 323 323 324 325 326 327 324 326 325 324 325 326 327 326 327 328 329 328
319 318 319 321 322 324 325 325 325 325 325 325 324 324 324 325 329 325 325 325 324 323 321 320 321 323 324 324 324 324 324 324 325 324 324 325 324 324 326 327 326 326 327 326 324
322 321 321 321 322 323 324 324 325 325 325 324 324 324 323 327 327 324 324 323 323 316 318 320 321 323 325 325 325 324 324 324 324 323 322 323 324 323 325 325 325 325 324 323 320
323 323 322 322 322 323 323 324 324 324 324 323 323 324 325 326 326 326 322 322 322 319 320 320 321 321 320 322 324 323 323 323 323 323 322 323 323 323 323 323 322 322 321 319 317
325 324 325 324 324 324 324 323 323 323 323 324 324 324 324 326 326 326 325 324 323 320 319 320 318 318 321 323 323 323 323 322 323 322 322 322 322 323 323 321 320 320 319 317 316
322 323 324 324 324 323 323 323 324 325 324 325 324 324 324 323 325 325 324 324 324 324 320 319 317 318 320 322 322 323 323 323 323 323 323 322 322 324 322 320 319 319 318 316 314
316 318 319 317 317 322 323 323 324 324 324 324 324 325 326 325 324 323 320 320 321 321 318 318 316 319 322 323 324 325 325 325 325 325 324 323 322 323 322 320 320 319 317 315 313
306 306 310 311 313 314 314 316 318 319 323 325 324 323 324 325 324 321 318 319 320 319 319 318 318 320 322 323 325 326 327 326 326 326 324 323 322 323 322 321 320 319 317 315 313
303 304 304 303 304 304 305 314 320 323 325 325 325 324 325 324 321 320 320 320 319 319 321 322 320 321 322 323 324 324 326 326 327 328 324 324 324 323 322 321 321 320 318 316 314
300 301 303 303 303 303 305 315 315 321 319 320 323 325 325 325 325 325 323 323 320 322 321 322 323 322 322 322 323 324 324 325 326 326 323 323 323 323 323 322 321 321 319 317 315
300 300 303 308 307 304 304 314 317 319 318 315 315 317 319 321 323 323 324 324 323 322 323 323 323 322 321 321 323 323 323 323 324 325 321 321 321 322 323 322 321 320 320 318 316
301 303 305 308 305 313 315 315 317 319 318 311 312 314 316 316 319 320 321 321 323 324 323 324 324 322 323 323 321 322 321 322 322 324 326 321 320 321 323 322 322 320 320 319 317
301 307 310 308 315 315 317 316 318 320 312 313 317 317 319 320 321 321 320 320 322 322 323 324 321 320 321 324 322 322 321 319 320 322 322 322 322 321 321 323 322 321 320 319 317
302 304 311 310 311 315 315 317 317 316 315 313 318 318 318 318 320 320 319 320 320 321 321 323 322 319 321 321 322 321 321 319 319 320 321 321 322 322 322 322 322 321 320 319 317
302 303 308 311 313 312 312 314 313 315 311 312 313 318 317 317 319 320 320 321 321 321 322 322 322 321 319 319 320 321 320 320 322 321 321 320 321 322 322 322 323 321 319 318 317
300 302 305 309 310 311 311 314 312 309 309 312 314 313 317 320 319 319 320 321 320 321 321 322 325 322 320 319 319 321 320 323 323 325 324 323 322 321 321 319 320 320 319 318 316
300 301 303 306 308 308 311 314 312 311 310 310 310 311 311 313 317 319 320 320 320 320 323 320 319 319 321 320 318 318 320 319 321 322 323 322 322 321 318 317 316 316 319 317 316
301 304 304 304 307 307 309 311 310 309 310 311 310 310 313 313 314 316 319 320 321 320 320 321 321 319 320 320 318 317 318 321 320 322 323 322 322 323 320 317 316 316 318 317 315
301 304 305 305 305 306 308 309 309 309 308 309 310 311 311 312 313 317 319 320 319 319 318 319 319 319 314 316 318 317 316 318 319 320 321 322 321 319 319 319 316 316 316 316 315
302 304 304 305 306 306 306 306 306 307 307 308 309 310 311 312 313 313 314 315 317 316 317 316 317 322 319 315 316 316 318 317 318 318 319 321 320 319 318 318 316 315 315 315 315
301 302 303 303 305 306 305 306 306 307 307 306 308 309 310 311 312 312 313 313 316 316 315 314 316 322 320 319 318 313 313 314 316 317 318 320 319 318 318 316 316 316 315 315 314
300 301 302 303 303 304 304 306 306 304 305 305 307 307 308 310 311 311 313 311 313 313 312 312 312 316 320 319 317 317 315 316 317 316 316 317 317 316 317 316 316 314 314 314 314
298 300 302 303 303 304 304 304 305 305 306 306 307 307 308 309 310 311 311 312 311 312 310 311 314 314 315 315 314 314 314 315 317 318 317 316 316 316 316 316 314 313 313 314 313
298 299 299 300 301 303 304 304 302 303 304 305 305 305 307 309 309 310 310 311 312 311 311 312 313 312 314 313 312 312 313 313 314 316 316 318 318 315 313 313 314 314 314 314 314
297 298 299 300 301 301 302 302 302 303 303 302 304 306 306 307 307 307 308 309 310 311 312 310 311 314 315 311 312 314 313 314 314 315 316 317 317 316 316 315 314 315 314 313 313

GFSSW_850_thetae_177.txt.gz
Theta_e
316 316 316 317 318 318 319 321 322 324 325 326 325 325 325 324 324 324 325 324 320 322 320 320 321 321 321 321 321 322 319 319 321 322 322 325 325 325 327 329 332 333 333 336 335
314 314 315 316 317 319 320 322 323 325 325 325 325 325 325 324 324 325 325 321 323 325 324 320 320 320 321 322 322 320 318 321 322 322 323 324 325 326 327 328 330 332 336 337 330
314 314 314 316 318 320 322 323 324 325 325 325 325 325 324 324 325 322 322 324 325 325 323 323 320 320 321 322 323 321 320 321 322 324 324 323 323 326 325 325 329 330 332 330 329
320 318 317 317 318 321 321 323 324 324 325 324 324 324 323 323 327 326 325 325 325 324 320 319 320 321 320 320 324 320 321 322 322 323 322 321 324 324 325 325 326 329 330 329 329
322 322 321 321 320 321 321 322 323 323 324 324 323 323 323 324 324 326 325 325 323 322 319 319 320 320 320 320 320 322 321 323 323 323 323 322 321 324 325 326 326 328 328 327 323
323 322 322 322 322 322 322 323 323 323 323 323 322 324 324 325 323 326 326 326 323 323 319 319 320 319 319 319 319 322 322 322 322 321 322 321 322 324 325 326 326 326 325 323 320
324 325 324 323 323 324 324 324 323 324 324 324 324 324 324 323 323 324 325 325 324 323 321 319 319 317 318 318 321 322 320 320 320 321 320 321 319 322 324 324 324 323 322 319 317
319 319 320 322 321 320 320 321 321 320 320 324 324 324 324 323 324 324 324 324 324 324 324 322 319 317 317 319 320 320 319 319 320 320 321 320 319 320 323 322 322 321 319 317 315
309 311 311 312 316 313 315 313 315 316 317 317 321 325 325 325 324 324 323 321 320 321 322 319 318 316 318 319 319 320 320 320 321 321 320 318 319 317 321 320 319 319 318 316 315
304 303 304 304 305 307 309 311 312 313 315 322 324 324 323 325 324 324 319 318 319 320 319 319 318 315 316 317 321 321 322 323 323 323 321 320 317 319 320 319 318 318 317 315 314
302 303 303 303 303 303 303 304 307 316 324 323 325 324 324 325 324 323 320 319 319 319 318 320 316 316 316 317 320 321 322 322 321 322 323 322 320 319 319 319 318 317 317 315 313
300 300 301 302 303 303 303 304 306 317 319 317 320 322 323 322 325 325 324 323 321 319 319 318 319 319 319 319 320 320 321 322 321 322 322 320 319 320 319 319 318 317 316 314 313
300 300 300 302 301 302 303 307 305 316 318 316 313 313 308 314 323 324 324 325 324 323 321 321 322 322 321 320 320 319 320 321 321 320 320 320 319 319 320 320 319 318 317 315 313
299 300 300 300 303 316 315 318 315 317 316 313 312 313 313 315 317 319 321 323 322 325 324 323 322 322 323 322 320 320 319 320 320 318 319 318 320 316 317 320 319 319 317 315 313
300 301 302 307 309 316 317 317 318 315 312 311 313 315 315 314 316 320 318 317 322 321 321 323 323 322 323 322 320 320 320 320 318 316 316 318 317 318 316 320 320 318 318 316 313
301 301 303 311 305 312 315 315 315 315 313 312 317 318 318 315 318 320 319 318 319 320 320 321 321 320 321 319 318 320 320 319 317 315 317 317 318 317 318 317 320 319 318 316 313
299 301 303 310 310 310 312 311 313 309 310 311 312 312 312 317 318 317 319 319 319 320 321 320 320 320 320 320 319 318 318 318 318 317 318 317 318 318 317 317 317 319 318 316 312
299 299 302 307 310 312 311 311 311 309 308 309 310 310 310 311 312 318 319 318 317 318 320 321 321 319 319 320 320 318 318 318 320 320 319 318 317 317 316 317 321 320 318 316 312
298 299 300 301 309 309 309 312 308 309 309 310 310 310 309 311 312 312 316 317 317 319 322 321 321 319 318 320 319 317 318 318 319 319 319 317 318 318 316 315 314 318 317 315 313
298 301 301 300 304 308 307 309 309 309 309 309 309 310 311 311 311 312 315 316 319 317 316 319 320 319 319 318 316 317 317 318 317 320 320 318 318 318 316 315 314 314 316 315 313
298 302 301 303 304 306 306 305 307 307 307 308 309 310 310 310 311 312 312 314 317 316 314 316 317 319 318 316 315 315 317 315 317 318 319 318 316 316 316 315 313 314 316 314 312
300 300 304 304 305 305 305 305 305 306 306 306 307 309 309 309 309 311 313 313 313 314 315 315 316 319 320 318 317 313 315 315 316 316 315 317 317 314 314 313 313 314 316 315 314
300 301 302 304 305 304 304 304 304 305 305 306 306 306 306 306 309 309 310 310 311 315 316 314 313 318 319 317 317 315 314 315 316 314 316 319 318 315 314 314 315 313 316 315 314
299 299 300 302 303 301 303 304 305 305 305 305 306 305 305 306 307 307 308 309 310 311 312 312 312 316 317 317 315 316 315 314 315 316 315 314 314 313 314 313 314 315 314 315 314
298 297 300 300 298 301 302 303 303 303 304 304 305 306 306 306 306 307 307 308 308 309 311 310 311 313 314 314 314 314 313 314 314 315 317 317 317 316 314 312 313 314 314 314 314
297 298 299 299 299 301 301 301 303 303 302 302 302 303 304 305 305 307 306 306 307 308 310 310 311 312 312 312 312 312 313 312 311 312 312 314 316 314 314 314 314 313 314 314 313
295 297 297 299 298 298 298 300 302 302 302 302 302 303 303 304 304 304 305 305 306 306 307 309 308 309 310 309 312 313 312 312 311 311 312 313 313 312 313 315 315 312 313 313 313

GFSSW_850_thetae_180.txt.gz
Theta_e
314 315 316 317 317 318 319 320 321 323 324 325 325 325 325 325 324 324 325 325 322 323 325 324 322 321 321 321 321 320 318 318 320 321 321 323 325 328 329 331 332 333 334 334 335
313 313 314 315 316 318 319 320 322 323 324 325 325 325 324 324 324 324 325 323 322 325 325 324 323 320 321 321 322 319 317 319 318 320 320 324 326 326 329 331 330 331 334 335 335
317 315 316 315 316 317 318 320 321 323 323 324 324 324 324 323 324 323 326 325 325 325 325 322 321 319 320 321 321 319 318 318 321 322 322 322 324 326 326 326 331 329 330 334 334
321 320 319 319 319 318 318 319 320 321 322 323 323 323 323 323 324 324 325 325 325 323 320 318 318 319 319 319 321 320 320 320 321 322 322 319 322 324 324 325 330 334 335 334 330
322 322 321 321 321 321 321 321 322 322 323 323 323 323 322 323 323 323 325 325 324 324 321 320 318 319 318 318 318 319 320 322 322 321 322 321 322 324 325 326 331 335 333 330 326
323 322 321 322 321 322 323 323 324 324 323 323 323 324 325 324 322 323 324 326 325 324 323 319 319 318 318 318 318 319 320 319 321 321 321 322 323 325 326 329 332 331 329 328 327
322 322 322 323 323 322 322 322 322 322 320 319 319 323 323 324 322 322 323 324 325 325 324 321 320 319 316 316 319 319 319 317 320 320 320 320 322 322 326 328 329 327 328 327 326
318 317 317 314 317 317 319 317 317 317 316 315 316 316 321 322 323 323 323 324 323 324 324 324 323 318 317 317 318 319 319 319 320 320 320 319 317 322 326 326 324 324 322 320 319
313 310 310 307 308 307 308 312 310 315 315 312 313 320 323 323 323 323 324 323 320 320 323 323 320 317 316 317 317 318 319 319 319 319 318 317 317 322 324 324 322 321 320 319 317
304 304 304 303 304 304 304 304 306 306 309 313 321 323 320 321 323 322 324 320 318 320 319 319 318 314 314 315 321 319 320 319 320 320 319 318 316 318 321 322 321 318 316 317 317
301 301 302 302 302 303 302 302 305 316 317 321 323 322 323 324 324 324 322 319 319 319 318 318 316 316 315 315 317 319 319 319 319 319 320 319 318 316 320 319 319 316 316 316 315
299 300 301 299 299 301 302 302 308 310 314 314 314 315 316 319 324 323 324 324 320 320 318 318 318 318 317 316 317 318 319 319 319 319 319 318 317 315 318 319 318 316 315 314 314
299 299 299 299 300 309 313 314 318 316 314 314 308 312 310 310 317 316 318 323 323 324 321 320 320 320 319 319 320 319 318 318 319 318 317 318 317 318 318 318 318 317 316 313 313
299 299 300 302 304 305 309 317 317 316 313 311 311 313 312 312 313 310 313 321 322 325 325 323 323 322 322 322 320 321 318 319 319 318 318 318 317 317 318 318 317 317 316 313 312
301 301 300 301 304 308 312 315 316 314 308 309 312 312 313 313 315 317 314 319 322 323 322 323 322 322 323 322 321 322 320 318 319 317 315 316 315 315 314 319 318 316 316 313 313
301 300 301 303 303 305 313 314 312 309 308 311 314 312 312 314 315 316 319 317 318 321 321 321 320 320 320 320 319 318 317 318 317 314 319 316 315 316 316 317 318 318 317 314 312
299 299 301 302 309 306 309 311 307 308 308 309 310 310 310 311 314 314 317 316 316 319 319 318 319 318 319 320 320 320 317 320 319 317 320 316 317 318 315 316 318 317 318 315 312
300 299 299 301 308 311 310 308 308 307 308 308 309 310 309 309 310 311 313 313 316 319 319 320 320 317 317 318 320 320 320 320 321 320 319 316 317 316 314 315 316 317 318 316 312
300 298 299 298 305 310 310 310 304 308 308 309 308 310 310 310 310 310 313 317 317 317 321 322 321 318 319 317 318 319 319 317 318 317 318 316 315 316 315 315 312 316 317 314 310
299 298 298 298 301 307 307 308 307 308 308 308 309 309 309 310 310 311 311 314 317 315 314 318 319 318 317 317 317 317 317 319 318 321 321 318 316 317 315 314 314 315 313 311 309
297 300 300 300 301 306 306 305 306 306 306 306 309 309 308 309 309 310 311 311 316 313 314 315 316 316 316 317 314 314 314 316 317 319 320 320 318 313 315 316 312 313 314 312 310
298 298 304 303 304 303 303 305 304 304 304 305 306 306 306 306 306 308 309 311 309 310 313 314 315 315 314 314 316 317 316 315 317 318 316 317 318 313 314 313 311 314 314 313 311
298 300 300 303 303 300 301 304 303 304 304 305 306 306 306 306 307 307 308 307 306 308 313 312 313 313 312 314 314 315 314 314 314 312 316 320 317 312 311 311 313 314 314 312 310
298 296 300 302 301 301 304 303 304 304 304 305 305 305 305 305 305 306 306 307 306 307 308 310 312 314 314 311 311 312 313 312 312 316 317 316 313 313 313 312 312 313 314 313 312
297 297 298 292 295 299 301 301 302 302 303 304 303 303 304 304 305 305 306 305 304 305 308 309 311 310 311 311 311 313 314 313 313 313 315 314 314 312 311 311 312 313 313 313 312
296 296 298 298 298 300 301 300 300 300 301 302 301 301 302 303 303 302 304 303 304 304 305 308 308 308 307 309 312 312 312 311 312 313 312 312 312 310 310 310 312 313 313 313 313
294 297 296 297 297 297 297 300 300 301 301 302 301 301 301 301 302 303 303 303 303 303 302 304 305 308 308 307 308 309 308 309 310 313 313 312 311 310 310 310 311 312 313 313 312